CW1648 Weather Reports


time (UTC)temp
F
wind
direction
speed
knots
gust
knots
rain 1hr
in
rain 24hr
in
rain mn
in
humidity
%
barometer
mb
20260505152550 82 232 0.0 4.3 0.00 0.00 0.00 37 1003.4
20260505152519 82 229 0.0 4.3 0.00 0.00 0.00 37 1003.6
20260505152500 82 216 0.0 4.3 0.00 0.00 0.00 37 1003.5
20260505152456 82 183 0.0 4.3 0.00 0.00 0.00 37 1003.5
20260505152247 82 186 0.0 4.3 0.00 0.00 0.00 38 1003.5
20260505152147 82 194 0.0 1.7 0.00 0.00 0.00 38 1003.4
20260505152046 82 195 0.0 3.5 0.00 0.00 0.00 40 1003.4
20260505152020 81 254 0.0 3.5 0.00 0.00 0.00 40 1003.4
20260505151959 81 254 0.0 3.5 0.00 0.00 0.00 40 1003.4
20260505151954 81 247 0.0 3.5 0.00 0.00 0.00 40 1003.5
20260505151745 81 247 0.0 3.5 0.00 0.00 0.00 40 1003.4
20260505151655 81 222 0.0 3.5 0.00 0.00 0.00 39 1003.4
20260505151651 81 182 0.0 3.5 0.00 0.00 0.00 38 1003.3
20260505151520 81 246 0.0 3.5 0.00 0.00 0.00 39 1003.3
20260505151518 81 244 0.0 3.5 0.00 0.00 0.00 39 1003.4
20260505151441 81 208 0.0 3.5 0.00 0.00 0.00 39 1003.4
20260505151401 81 242 0.0 3.5 0.00 0.00 0.00 38 1003.2
20260505151248 81 202 0.0 3.5 0.00 0.00 0.00 38 1003.2
20260505151038 82 190 0.0 3.5 0.00 0.00 0.00 37 1003.3
20260505151020 82 215 0.0 3.5 0.00 0.00 0.00 37 1003.0
20260505151018 82 245 0.0 3.5 0.00 0.00 0.00 37 1003.3
20260505150938 82 235 0.0 2.6 0.00 0.00 0.00 37 1003.1
20260505150837 82 194 0.0 2.6 0.00 0.00 0.00 36 1003.1
20260505150736 82 238 0.0 2.6 0.00 0.00 0.00 37 1003.1
20260505150635 82 220 0.0 2.6 0.00 0.00 0.00 37 1003.1
20260505150535 82 258 0.0 0.9 0.00 0.00 0.00 37 1003.1
20260505150520 82 201 0.0 0.0 0.00 0.00 0.00 37 1003.0
20260505150517 82 227 0.0 0.9 0.00 0.00 0.00 37 1003.1
20260505150434 82 213 0.0 0.0 0.00 0.00 0.00 38 1003.1
20260505150332 82 242 0.0 0.0 0.00 0.00 0.00 38 1003.1
20260505150231 82 248 0.0 0.0 0.00 0.00 0.00 37 1003.2
20260505150144 82 240 0.0 0.0 0.00 0.00 0.00 39 1003.3
20260505150140 82 229 0.0 0.0 0.00 0.00 0.00 39 1003.3
20260505140520 76 290 0.0 2.6 0.00 0.00 0.00 46 1004.2
20260505140456 76 296 0.0 2.6 0.00 0.00 0.00 45 1004.2
20260505140356 76 242 0.0 2.6 0.00 0.00 0.00 45 1004.2
20260505140253 76 194 0.0 1.7 0.00 0.00 0.00 46 1004.2
20260505140206 76 219 0.0 0.9 0.00 0.00 0.00 46 1004.3
20260505140201 76 197 0.0 1.7 0.00 0.00 0.00 47 1004.2
20260505130118 70 246 0.0 2.6 0.00 0.00 0.00 52 1006.0
20260505125019 70 228 0.0 5.2 0.00 0.00 0.00 52 1007.6
20260505124825 70 251 0.0 4.3 0.00 0.00 0.00 53 1006.8
20260505124819 70 247 0.0 3.5 0.00 0.00 0.00 53 1007.3
20260505124609 70 226 0.0 4.3 0.00 0.00 0.00 55 1006.7
20260505124519 69 262 0.0 3.5 0.00 0.00 0.00 56 1006.7
20260505124508 69 262 0.0 4.3 0.00 0.00 0.00 56 1006.8
20260505124459 69 251 0.0 4.3 0.00 0.00 0.00 56 1006.8
20260505124407 69 221 0.0 4.3 0.00 0.00 0.00 56 1006.4
20260505124358 69 245 0.0 4.3 0.00 0.00 0.00 56 1006.3
20260505124247 69 229 0.0 4.3 0.00 0.00 0.00 55 1006.6
20260505124243 69 202 0.0 4.3 0.00 0.00 0.00 54 1006.6
20260505124236 69 245 0.0 4.3 0.00 0.00 0.00 55 1006.4
20260505124118 69 252 0.0 4.3 0.00 0.00 0.00 55 1006.9
20260505124021 69 252 0.0 3.5 0.00 0.00 0.00 55 1006.8
20260505123802 69 243 0.0 4.3 0.00 0.00 0.00 54 1006.6
20260505123702 69 227 0.0 1.7 0.00 0.00 0.00 56 1006.6
20260505123606 68 265 0.0 1.7 0.00 0.00 0.00 56 1006.6
20260505123600 68 219 0.0 1.7 0.00 0.00 0.00 56 1006.5
20260505123501 68 226 0.0 1.7 0.00 0.00 0.00 56 1006.6
20260505123359 68 250 0.0 1.7 0.00 0.00 0.00 56 1006.7
20260505123259 68 202 0.0 1.7 0.00 0.00 0.00 57 1006.7
20260505123157 68 233 0.0 1.7 0.00 0.00 0.00 56 1006.8
20260505123057 68 206 0.0 1.7 0.00 0.00 0.00 55 1006.9
20260505123050 68 209 0.0 1.7 0.00 0.00 0.00 56 1007.6
20260505123003 68 205 0.0 1.7 0.00 0.00 0.00 56 1007.6
20260505122957 68 204 0.0 1.7 0.00 0.00 0.00 56 1007.6
20260505122857 68 240 0.0 0.9 0.00 0.00 0.00 56 1007.6
20260505122755 68 205 0.0 0.9 0.00 0.00 0.00 56 1007.1
20260505122655 68 223 0.0 0.9 0.00 0.00 0.00 57 1007.7
20260505122555 67 263 0.0 0.9 0.00 0.00 0.00 58 1007.0
20260505122519 67 242 0.0 0.0 0.00 0.00 0.00 58 1007.0
20260505122454 67 242 0.0 3.5 0.00 0.00 0.00 58 1007.0
20260505122353 67 230 0.0 3.5 0.00 0.00 0.00 57 1007.0
20260505122315 67 194 0.0 3.5 0.00 0.00 0.00 58 1007.1
20260505122202 67 198 0.0 3.5 0.00 0.00 0.00 57 1007.2
20260505122026 67 198 0.0 3.5 0.00 0.00 0.00 57 1007.3
20260505122019 67 197 0.0 1.7 0.00 0.00 0.00 57 1007.3
20260505121914 67 213 0.0 3.5 0.00 0.00 0.00 57 1007.3
20260505121908 67 197 0.0 3.5 0.00 0.00 0.00 57 1007.3
20260505121551 67 240 0.0 3.5 0.00 0.00 0.00 57 1007.4
20260505121520 67 188 0.0 3.5 0.00 0.00 0.00 58 1007.6
20260505121453 67 214 0.0 3.5 0.00 0.00 0.00 58 1007.6
20260505121448 67 231 0.0 3.5 0.00 0.00 0.00 58 1007.6
20260505121349 67 257 0.0 3.5 0.00 0.00 0.00 59 1007.5
20260505121248 66 222 0.0 3.5 0.00 0.00 0.00 58 1007.7
20260505121221 66 211 0.0 3.5 0.00 0.00 0.00 59 1008.1
20260505121217 66 198 0.0 3.5 0.00 0.00 0.00 58 1008.1
20260505121211 66 200 0.0 3.5 0.00 0.00 0.00 59 1008.1
20260505121054 66 196 0.0 3.5 0.00 0.00 0.00 58 1008.1
20260505121020 66 168 0.0 3.5 0.00 0.00 0.00 58 1008.1
20260505120900 66 205 0.0 3.5 0.00 0.00 0.00 58 1008.2
20260505120854 66 205 0.0 3.5 0.00 0.00 0.00 57 1008.1
20260505120713 66 222 0.0 3.5 0.00 0.00 0.00 58 1008.2
20260505120559 66 236 0.0 3.5 0.00 0.00 0.00 58 1008.1
20260505120551 66 225 0.0 0.9 0.00 0.00 0.00 58 1008.2
20260505120520 66 224 0.0 0.0 0.00 0.00 0.00 58 1008.2
20260505120358 66 236 0.0 0.9 0.00 0.00 0.00 59 1008.2
20260505120353 66 219 0.0 0.9 0.00 0.00 0.00 58 1008.2
20260505120218 66 214 0.0 1.7 0.00 0.00 0.00 59 1008.3
20260505120142 66 221 0.0 0.9 0.00 0.00 0.00 59 1008.3
20260505120100 66 215 0.0 1.7 0.00 0.00 0.00 60 1008.3
20260505120020 66 214 0.0 1.7 0.00 0.00 0.00 59 1008.3
20260505115941 66 214 0.0 1.7 0.00 0.00 0.00 59 1008.3
20260505115839 66 215 0.0 1.7 0.00 0.00 0.00 59 1008.3
20260505115739 66 221 0.0 1.7 0.00 0.00 0.00 60 1008.3
20260505115715 66 211 0.0 1.7 0.00 0.00 0.00 59 1008.3
20260505115638 66 198 0.0 1.7 0.00 0.00 0.00 59 1008.2
20260505115559 66 243 0.0 1.7 0.00 0.00 0.00 59 1008.2
20260505115520 66 191 0.0 1.7 0.00 0.00 0.00 59 1008.3
20260505115435 66 215 0.0 1.7 0.00 0.00 0.00 59 1008.3
20260505115334 66 191 0.0 1.7 0.00 0.00 0.00 60 1008.3
20260505115234 66 195 0.0 1.7 0.00 0.00 0.00 59 1008.4
20260505115133 65 199 0.0 1.7 0.00 0.00 0.00 60 1008.4
20260505115032 65 227 0.0 1.7 0.00 0.00 0.00 60 1008.4
20260505115020 66 227 0.0 1.7 0.00 0.00 0.00 60 1008.4
20260505114949 65 227 0.0 1.7 0.00 0.00 0.00 60 1008.4
20260505114931 65 188 0.0 1.7 0.00 0.00 0.00 60 1008.4
20260505114831 65 198 0.0 1.7 0.00 0.00 0.00 60 1008.4
20260505114731 65 222 0.0 1.7 0.00 0.00 0.00 61 1008.4
20260505114631 65 216 0.0 1.7 0.00 0.00 0.00 60 1008.4
20260505114530 65 217 0.0 1.7 0.00 0.00 0.00 61 1008.4
20260505114520 65 218 0.0 1.7 0.00 0.00 0.00 61 1008.4
20260505114449 65 229 0.0 1.7 0.00 0.00 0.00 63 1008.4
20260505114430 65 182 0.0 0.0 0.00 0.00 0.00 63 1008.4
20260505114329 65 212 0.0 0.0 0.00 0.00 0.00 63 1008.4
20260505114229 65 212 0.0 1.7 0.00 0.00 0.00 63 1008.4
20260505114143 65 212 0.0 1.7 0.00 0.00 0.00 62 1008.4
20260505114137 65 212 0.0 1.7 0.00 0.00 0.00 62 1008.4
20260505114020 65 212 0.0 1.7 0.00 0.00 0.00 62 1008.3
20260505113949 65 212 0.0 1.7 0.00 0.00 0.00 63 1008.3
20260505113926 65 175 0.0 1.7 0.00 0.00 0.00 63 1008.3
20260505113826 65 224 0.0 1.7 0.00 0.00 0.00 63 1008.3
20260505113752 65 224 0.0 1.7 0.00 0.00 0.00 61 1008.4
20260505113748 65 224 0.0 1.7 0.00 0.00 0.00 61 1008.4
20260505113743 65 224 0.0 1.7 0.00 0.00 0.00 62 1008.4
20260505113520 65 211 0.0 1.7 0.00 0.00 0.00 61 1008.4
20260505113447 65 217 0.0 1.7 0.00 0.00 0.00 61 1008.4
20260505113424 65 240 0.0 1.7 0.00 0.00 0.00 62 1008.4
20260505113323 65 188 0.0 1.7 0.00 0.00 0.00 64 1008.5
20260505113224 65 153 0.0 0.0 0.00 0.00 0.00 65 1008.5
20260505113124 64 153 0.0 0.0 0.00 0.00 0.00 63 1008.5
20260505113056 64 153 0.0 0.0 0.00 0.00 0.00 64 1008.4
20260505113052 64 103 0.0 0.0 0.00 0.00 0.00 64 1008.5
20260505113047 64 153 0.0 0.0 0.00 0.00 0.00 63 1008.5
20260505113038 64 153 0.0 0.0 0.00 0.00 0.00 63 1008.4
20260505113019 64 153 0.0 0.0 0.00 0.00 0.00 63 1008.4
20260505112737 64 206 0.0 0.0 0.00 0.00 0.00 64 1008.5
20260505112733 64 103 0.0 0.0 0.00 0.00 0.00 64 1008.5
20260505112524 64 206 0.0 0.0 0.00 0.00 0.00 65 1008.5
20260505112520 64 206 0.0 0.0 0.00 0.00 0.00 64 1008.4
20260505112423 64 206 0.0 0.0 0.00 0.00 0.00 64 1008.4
20260505112323 64 206 0.0 0.0 0.00 0.00 0.00 65 1008.4
20260505112223 64 206 0.0 0.0 0.00 0.00 0.00 65 1008.5
20260505112122 63 206 0.0 0.0 0.00 0.00 0.00 66 1008.4
20260505112022 63 206 0.0 0.0 0.00 0.00 0.00 67 1008.4
20260505112020 63 206 0.0 0.0 0.00 0.00 0.00 67 1008.4
20260505111947 63 206 0.0 0.0 0.00 0.00 0.00 67 1008.3
20260505111921 63 206 0.0 0.0 0.00 0.00 0.00 66 1008.3
20260505111820 63 206 0.0 0.0 0.00 0.00 0.00 66 1008.3
20260505111742 62 206 0.0 0.0 0.00 0.00 0.00 66 1008.3
20260505111719 63 206 0.0 0.0 0.00 0.00 0.00 67 1008.3
20260505111647 62 206 0.0 0.0 0.00 0.00 0.00 66 1008.3
20260505111641 62 206 0.0 0.0 0.00 0.00 0.00 67 1008.3
20260505111632 62 206 0.0 0.0 0.00 0.00 0.00 66 1008.3
20260505111520 62 206 0.0 0.0 0.00 0.00 0.00 66 1008.4
20260505111317 62 206 0.0 0.0 0.00 0.00 0.00 67 1008.2
20260505111217 62 206 0.0 0.0 0.00 0.00 0.00 67 1008.3
20260505111211 62 206 0.0 0.0 0.00 0.00 0.00 68 1008.2
20260505111115 62 206 0.0 0.0 0.00 0.00 0.00 67 1008.3
20260505111054 62 206 0.0 0.0 0.00 0.00 0.00 68 1008.3
20260505111020 62 206 0.0 0.0 0.00 0.00 0.00 68 1008.3
20260505110914 62 206 0.0 0.0 0.00 0.00 0.00 68 1008.2
20260505110813 61 206 0.0 0.0 0.00 0.00 0.00 69 1008.2
20260505110713 61 206 0.0 0.0 0.00 0.00 0.00 69 1008.2
20260505110613 61 206 0.0 0.0 0.00 0.00 0.00 69 1008.1
20260505110550 61 206 0.0 0.0 0.00 0.00 0.00 70 1008.3
20260505110511 61 206 0.0 0.0 0.00 0.00 0.00 70 1008.2
20260505110446 61 206 0.0 0.0 0.00 0.00 0.00 70 1008.2
20260505110411 60 206 0.0 0.0 0.00 0.00 0.00 70 1008.2
20260505110310 60 206 0.0 0.0 0.00 0.00 0.00 70 1008.2
20260505110209 60 206 0.0 0.0 0.00 0.00 0.00 71 1008.2
20260505110109 60 206 0.0 0.0 0.00 0.00 0.00 71 1008.2
20260505102204 58 0 0.0 0.9 0.00 0.00 0.00 71 1008.1
20260505102200 58 0 0.0 0.9 0.00 0.00 0.00 71 1008.1
20260505102020 58 360 0.0 0.9 0.00 0.00 0.00 71 1008.2
20260505101937 58 0 0.0 0.9 0.00 0.00 0.00 71 1008.1
20260505101850 58 0 0.0 0.9 0.00 0.00 0.00 71 1008.1
20260505101748 58 0 0.0 0.9 0.00 0.00 0.00 71 1008.1
20260505101658 59 0 0.0 0.9 0.00 0.00 0.00 70 1008.1
20260505101648 58 0 0.0 0.9 0.00 0.00 0.00 70 1008.1
20260505101552 58 0 0.0 0.9 0.00 0.00 0.00 70 1008.1
20260505101542 59 0 0.0 0.9 0.00 0.00 0.00 70 1008.1
20260505101519 59 360 0.0 0.9 0.00 0.00 0.00 70 1008.2
20260505101354 59 0 0.0 0.9 0.00 0.00 0.00 70 1007.9
20260505101350 59 0 0.0 0.9 0.00 0.00 0.00 70 1008.1
20260505101338 59 0 0.0 0.9 0.00 0.00 0.00 70 1007.9
20260505101333 59 0 0.0 0.9 0.00 0.00 0.00 70 1007.9
20260505101328 59 0 0.0 0.9 0.00 0.00 0.00 70 1008.0
20260505101319 59 0 0.0 0.9 0.00 0.00 0.00 70 1008.0
20260505101020 59 360 0.0 0.9 0.00 0.00 0.00 70 1008.0
20260505100745 59 0 0.0 0.0 0.00 0.00 0.00 70 1007.9
20260505100645 59 0 0.0 0.0 0.00 0.00 0.00 69 1007.9
20260505100544 59 0 0.0 0.0 0.00 0.00 0.00 69 1007.9
20260505100519 59 360 0.0 0.0 0.00 0.00 0.00 69 1008.0
20260505100430 59 0 0.0 0.0 0.00 0.00 0.00 69 1007.9
20260505100343 59 0 0.0 0.0 0.00 0.00 0.00 69 1007.9
20260505100243 59 0 0.0 0.0 0.00 0.00 0.00 69 1007.9
20260505100142 59 0 0.0 0.0 0.00 0.00 0.00 69 1007.9
20260505100040 59 0 0.0 0.0 0.00 0.00 0.00 69 1007.9
20260505100020 59 360 0.0 0.0 0.00 0.00 0.00 69 1008.0
20260505095932 59 0 0.0 0.0 0.00 0.00 0.00 69 1007.9
20260505095927 59 0 0.0 0.0 0.00 0.00 0.00 69 1007.9
20260505095923 60 0 0.0 0.0 0.00 0.00 0.00 69 1007.9
20260505095917 59 0 0.0 0.0 0.00 0.00 0.00 69 1007.9
20260505095804 59 0 0.0 0.0 0.00 0.00 0.00 69 1007.9
20260505095536 60 0 0.0 0.0 0.00 0.00 0.00 69 1007.9
20260505095520 60 360 0.0 0.0 0.00 0.00 0.00 69 1008.0
20260505095359 60 0 0.0 0.0 0.00 0.00 0.00 69 1007.9
20260505095245 60 0 0.0 0.0 0.00 0.00 0.00 69 1007.8
20260505095036 60 0 0.0 0.0 0.00 0.00 0.00 68 1007.8
20260505095020 60 360 0.0 0.0 0.00 0.00 0.00 68 1007.9
20260505094926 60 0 0.0 0.0 0.00 0.00 0.00 68 1007.8
20260505094835 60 0 0.0 0.0 0.00 0.00 0.00 68 1007.8
20260505094734 60 0 0.0 0.0 0.00 0.00 0.00 68 1007.8
20260505094634 60 0 0.0 0.0 0.00 0.00 0.00 68 1007.7
20260505094546 60 0 0.0 0.0 0.00 0.00 0.00 68 1007.7
20260505094542 60 0 0.0 0.0 0.00 0.00 0.00 68 1007.7
20260505094520 60 360 0.0 0.0 0.00 0.00 0.00 68 1007.8
20260505094425 60 0 0.0 0.0 0.00 0.00 0.00 68 1007.7
20260505094331 60 0 0.0 0.0 0.00 0.00 0.00 68 1007.7
20260505094231 60 0 0.0 0.0 0.00 0.00 0.00 68 1007.7
20260505094129 60 0 0.0 0.0 0.00 0.00 0.00 68 1007.7
20260505094035 60 360 0.0 0.0 0.00 0.00 0.00 68 1007.8
20260505094030 60 0 0.0 0.0 0.00 0.00 0.00 68 1007.7
20260505093925 60 0 0.0 0.0 0.00 0.00 0.00 68 1007.7
20260505093850 60 0 0.0 0.0 0.00 0.00 0.00 68 1007.7
20260505093737 60 0 0.0 0.0 0.00 0.00 0.00 68 1007.7
20260505093535 60 360 0.0 0.0 0.00 0.00 0.00 68 1007.9
20260505093528 60 0 0.0 0.0 0.00 0.00 0.00 68 1007.7
20260505093423 60 0 0.0 2.6 0.00 0.00 0.00 68 1007.8
20260505093327 60 0 0.0 2.6 0.00 0.00 0.00 68 1007.7
20260505093226 60 0 0.0 2.6 0.00 0.00 0.00 68 1007.7
20260505093126 60 0 0.0 2.6 0.00 0.00 0.00 68 1007.8
20260505093025 60 0 0.0 2.6 0.00 0.00 0.00 68 1007.7
20260505093020 60 360 0.0 2.6 0.00 0.00 0.00 68 1007.8
20260505092922 60 0 0.0 2.6 0.00 0.00 0.00 68 1007.7
20260505092838 60 0 0.0 2.6 0.00 0.00 0.00 68 1007.8
20260505092834 60 0 0.0 2.6 0.00 0.00 0.00 68 1007.8
20260505092637 60 0 0.0 2.6 0.00 0.00 0.00 68 1007.8
20260505092633 60 0 0.0 2.6 0.00 0.00 0.00 68 1007.7
20260505092520 60 360 0.0 2.6 0.00 0.00 0.00 68 1007.8
20260505092426 60 0 0.0 0.9 0.00 0.00 0.00 68 1007.7
20260505092418 60 0 0.0 0.9 0.00 0.00 0.00 68 1007.7
20260505092414 60 0 0.0 0.9 0.00 0.00 0.00 68 1007.6
20260505092407 60 0 0.0 0.0 0.00 0.00 0.00 68 1007.7
20260505092254 60 0 0.0 0.0 0.00 0.00 0.00 68 1007.7
20260505092020 60 360 0.0 0.0 0.00 0.00 0.00 68 1007.7
20260505091922 60 0 0.0 0.9 0.00 0.00 0.00 68 1007.6
20260505091820 60 0 0.0 0.9 0.00 0.00 0.00 68 1007.7
20260505091720 60 0 0.0 0.9 0.00 0.00 0.00 68 1007.7
20260505091619 60 0 0.0 0.9 0.00 0.00 0.00 68 1007.7
20260505091520 60 360 0.0 0.0 0.00 0.00 0.00 68 1007.8
20260505091418 60 0 0.0 0.9 0.00 0.00 0.00 68 1007.7
20260505091337 60 0 0.0 0.9 0.00 0.00 0.00 68 1007.7
20260505091224 60 0 0.0 0.9 0.00 0.00 0.00 68 1007.7
20260505091020 60 360 0.0 0.0 0.00 0.00 0.00 68 1007.7
20260505091015 60 0 0.0 0.0 0.00 0.00 0.00 68 1007.7
20260505090914 60 0 0.0 0.0 0.00 0.00 0.00 68 1007.6
20260505090814 60 0 0.0 0.0 0.00 0.00 0.00 68 1007.7
20260505090715 60 0 0.0 0.0 0.00 0.00 0.00 68 1007.6
20260505090614 60 0 0.0 0.0 0.00 0.00 0.00 68 1007.6
20260505090534 60 360 0.0 0.0 0.00 0.00 0.00 68 1007.7
20260505090514 60 0 0.0 0.0 0.00 0.00 0.00 68 1007.6
20260505090413 60 0 0.0 0.0 0.00 0.00 0.00 68 1007.6
20260505090311 60 0 0.0 0.0 0.00 0.00 0.00 68 1007.6
20260505090211 60 0 0.0 0.0 0.00 0.00 0.00 68 1007.5
20260505090110 60 0 0.0 1.7 0.00 0.00 0.00 68 1007.5
20260505090101 60 0 0.0 3.5 0.00 0.00 0.00 68 1007.5
20260505090020 60 360 0.0 3.5 0.00 0.00 0.00 68 1007.6
20260505085942 60 0 0.0 3.5 0.00 0.00 0.00 68 1007.5
20260505085721 60 0 0.0 3.5 0.00 0.00 0.00 68 1007.4
20260505085716 60 0 0.0 3.5 0.00 0.00 0.00 68 1007.5
20260505085550 60 360 0.0 3.5 0.00 0.00 0.00 67 1007.5
20260505085526 60 0 0.0 3.5 0.00 0.00 0.00 67 1007.4
20260505085404 60 0 0.0 3.5 0.00 0.00 0.00 68 1007.4
20260505085304 60 0 0.0 3.5 0.00 0.00 0.00 67 1007.5
20260505085201 60 0 0.0 3.5 0.00 0.00 0.00 68 1007.5
20260505085100 60 0 0.0 3.5 0.00 0.00 0.00 67 1007.5
20260505085020 60 360 0.0 0.9 0.00 0.00 0.00 67 1007.5
20260505085000 60 0 0.0 0.9 0.00 0.00 0.00 67 1007.4
20260505084917 60 0 0.0 0.0 0.00 0.00 0.00 67 1007.4
20260505084900 60 0 0.0 0.0 0.00 0.00 0.00 67 1007.4
20260505084758 60 0 0.0 0.0 0.00 0.00 0.00 67 1007.4
20260505084658 60 0 0.0 0.0 0.00 0.00 0.00 67 1007.4
20260505084559 60 0 0.0 0.0 0.00 0.00 0.00 67 1007.4
20260505084520 60 360 0.0 0.0 0.00 0.00 0.00 67 1007.5
20260505084438 60 0 0.0 0.0 0.00 0.00 0.00 67 1007.5
20260505084434 60 0 0.0 0.0 0.00 0.00 0.00 67 1007.4
20260505084428 60 0 0.0 0.0 0.00 0.00 0.00 67 1007.5
20260505084314 60 0 0.0 0.0 0.00 0.00 0.00 67 1007.5
20260505084021 60 360 0.0 0.0 0.00 0.00 0.00 66 1007.6
20260505083955 60 0 0.0 0.0 0.00 0.00 0.00 66 1007.5
20260505083914 60 0 0.0 0.0 0.00 0.00 0.00 66 1007.5
20260505083909 60 0 0.0 0.0 0.00 0.00 0.00 66 1007.5
20260505083904 60 0 0.0 0.0 0.00 0.00 0.00 66 1007.5
20260505083654 60 0 0.0 0.0 0.00 0.00 0.00 66 1007.5
20260505083553 60 0 0.0 0.0 0.00 0.00 0.00 66 1007.5
20260505083519 61 360 0.0 0.0 0.00 0.00 0.00 66 1007.6
20260505083451 60 0 0.0 0.0 0.00 0.00 0.00 66 1007.5
20260505083414 60 0 0.0 0.0 0.00 0.00 0.00 66 1007.5
20260505083404 61 0 0.0 0.0 0.00 0.00 0.00 66 1007.6
20260505083400 61 0 0.0 0.0 0.00 0.00 0.00 66 1007.6
20260505083149 61 0 0.0 0.0 0.00 0.00 0.00 66 1007.6
20260505083050 61 0 0.0 0.0 0.00 0.00 0.00 65 1007.6
20260505083020 61 360 0.0 0.0 0.00 0.00 0.00 65 1007.7
20260505082949 61 0 0.0 0.0 0.00 0.00 0.00 65 1007.6
20260505082914 61 0 0.0 0.0 0.00 0.00 0.00 65 1007.6
20260505082847 61 0 0.0 0.0 0.00 0.00 0.00 65 1007.6
20260505082746 61 0 0.0 0.0 0.00 0.00 0.00 65 1007.6
20260505082646 61 0 0.0 0.0 0.00 0.00 0.00 65 1007.6
20260505082546 61 0 0.0 0.0 0.00 0.00 0.00 65 1007.6
20260505082520 61 360 0.0 0.0 0.00 0.00 0.00 65 1007.8
20260505082445 61 0 0.0 0.0 0.00 0.00 0.00 65 1007.7
20260505082413 61 0 0.0 0.0 0.00 0.00 0.00 65 1007.7
20260505082346 61 0 0.0 0.0 0.00 0.00 0.00 65 1007.6
20260505082304 61 0 0.0 0.0 0.00 0.00 0.00 65 1007.7
20260505082257 61 0 0.0 0.0 0.00 0.00 0.00 65 1007.6
20260505082137 61 0 0.0 0.0 0.00 0.00 0.00 65 1007.7
20260505082130 61 0 0.0 0.0 0.00 0.00 0.00 65 1007.7
20260505082051 61 360 0.0 0.0 0.00 0.00 0.00 65 1007.8
20260505081845 61 0 0.0 0.0 0.00 0.00 0.00 65 1007.7
20260505081744 61 0 0.0 0.0 0.00 0.00 0.00 65 1007.6
20260505081644 61 0 0.0 0.0 0.00 0.00 0.00 65 1007.6
20260505081556 61 0 0.0 0.0 0.00 0.00 0.00 64 1007.7
20260505081550 61 0 0.0 0.0 0.00 0.00 0.00 64 1007.6
20260505081535 61 360 0.0 0.0 0.00 0.00 0.00 64 1007.8
20260505081413 61 0 0.0 0.0 0.00 0.00 0.00 64 1007.6
20260505081338 61 0 0.0 0.0 0.00 0.00 0.00 64 1007.6
20260505081314 61 0 0.0 0.0 0.00 0.00 0.00 64 1007.6
20260505081309 61 0 0.0 0.0 0.00 0.00 0.00 64 1007.6
20260505081155 61 0 0.0 0.0 0.00 0.00 0.00 64 1007.6
20260505081020 61 360 0.0 0.0 0.00 0.00 0.00 64 1007.8
20260505080909 62 0 0.0 0.0 0.00 0.00 0.00 64 1007.7
20260505080837 62 0 0.0 0.0 0.00 0.00 0.00 64 1007.7
20260505080736 62 0 0.0 0.0 0.00 0.00 0.00 64 1007.7
20260505080636 62 0 0.0 0.0 0.00 0.00 0.00 64 1007.6
20260505080626 62 0 0.0 0.0 0.00 0.00 0.00 63 1007.6
20260505080535 62 0 0.0 0.0 0.00 0.00 0.00 63 1007.6
20260505080515 62 0 0.0 0.0 0.00 0.00 0.00 63 1007.6
20260505080335 62 0 0.0 0.0 0.00 0.00 0.00 63 1007.6
20260505080235 62 0 0.0 0.0 0.00 0.00 0.00 63 1007.6
20260505080134 62 0 0.0 0.0 0.00 0.00 0.00 63 1007.6
20260505080103 62 0 0.0 0.0 0.00 0.00 0.00 63 1007.6
20260505080059 62 0 0.0 0.0 0.00 0.00 0.00 63 1007.6
20260505080053 62 0 0.0 0.0 0.00 0.00 0.00 63 1007.6
20260505080020 62 360 0.0 0.0 0.00 0.00 0.00 63 1007.7
20260505075936 62 0 0.0 0.0 0.00 0.00 0.00 63 1007.6
20260505075728 62 0 0.0 0.0 0.00 0.00 0.00 63 1007.6
20260505075626 62 0 0.0 0.0 0.00 0.00 0.00 63 1007.5
20260505075527 62 0 0.0 0.0 0.00 0.00 0.00 63 1007.6
20260505075520 62 360 0.0 0.0 0.00 0.00 0.00 63 1007.7
20260505075409 62 0 0.0 0.0 0.00 0.00 0.00 63 1007.6
20260505075341 62 0 0.0 0.0 0.00 0.00 0.00 63 1007.6
20260505075335 62 0 0.0 0.0 0.00 0.00 0.00 63 1007.6
20260505075126 62 0 0.0 0.0 0.00 0.00 0.00 63 1007.6
20260505075025 62 0 0.0 0.0 0.00 0.00 0.00 63 1007.6
20260505075020 62 360 0.0 0.0 0.00 0.00 0.00 63 1007.7
20260505074925 62 0 0.0 0.0 0.00 0.00 0.00 63 1007.6
20260505074907 62 0 0.0 0.0 0.00 0.00 0.00 62 1007.7
20260505074825 62 0 0.0 0.0 0.00 0.00 0.00 62 1007.7
20260505074724 62 0 0.0 0.0 0.00 0.00 0.00 62 1007.7
20260505074624 62 0 0.0 0.0 0.00 0.00 0.00 62 1007.7
20260505074538 62 0 0.0 0.0 0.00 0.00 0.00 63 1007.7
20260505074532 62 0 0.0 0.0 0.00 0.00 0.00 62 1007.7
20260505074519 62 360 0.0 0.0 0.00 0.00 0.00 62 1007.8
20260505074405 62 0 0.0 0.0 0.00 0.00 0.00 62 1007.7
20260505074322 62 0 0.0 0.0 0.00 0.00 0.00 62 1007.7
20260505074237 62 0 0.0 0.0 0.00 0.00 0.00 62 1007.7
20260505074232 62 0 0.0 0.0 0.00 0.00 0.00 62 1007.7
20260505074022 62 0 0.0 0.0 0.00 0.00 0.00 62 1007.6
20260505074020 62 360 0.0 0.0 0.00 0.00 0.00 62 1007.8
20260505073922 62 0 0.0 0.0 0.00 0.00 0.00 62 1007.7
20260505073905 62 0 0.0 0.0 0.00 0.00 0.00 62 1007.6
20260505073821 62 0 0.0 0.0 0.00 0.00 0.00 62 1007.6
20260505073721 62 0 0.0 0.0 0.00 0.00 0.00 62 1007.7
20260505073620 62 0 0.0 0.0 0.00 0.00 0.00 62 1007.7
20260505073535 62 360 0.0 0.0 0.00 0.00 0.00 62 1007.7
20260505073520 62 0 0.0 0.0 0.00 0.00 0.00 62 1007.6
20260505073403 62 0 0.0 0.0 0.00 0.00 0.00 62 1007.6
20260505073334 62 0 0.0 0.0 0.00 0.00 0.00 62 1007.6
20260505073328 62 0 0.0 0.0 0.00 0.00 0.00 62 1007.6
20260505073118 62 0 0.0 0.0 0.00 0.00 0.00 62 1007.6
20260505073020 62 360 0.0 0.0 0.00 0.00 0.00 62 1007.7
20260505073018 62 0 0.0 0.0 0.00 0.00 0.00 62 1007.6
20260505072903 62 0 0.0 0.0 0.00 0.00 0.00 62 1007.6
20260505072817 62 0 0.0 0.0 0.00 0.00 0.00 61 1007.6
20260505072738 62 0 0.0 0.0 0.00 0.00 0.00 62 1007.6
20260505072624 62 0 0.0 0.0 0.00 0.00 0.00 61 1007.7
20260505072520 62 360 0.0 0.0 0.00 0.00 0.00 61 1007.7
20260505072403 62 0 0.0 0.0 0.00 0.00 0.00 61 1007.6
20260505072314 62 0 0.0 0.0 0.00 0.00 0.00 61 1007.6
20260505072214 62 0 0.0 0.0 0.00 0.00 0.00 61 1007.6
20260505072113 62 0 0.0 0.0 0.00 0.00 0.00 61 1007.6
20260505072035 62 360 0.0 0.0 0.00 0.00 0.00 61 1007.7
20260505072027 62 0 0.0 0.0 0.00 0.00 0.00 61 1007.6
20260505072022 62 0 0.0 0.0 0.00 0.00 0.00 61 1007.6
20260505071901 62 0 0.0 0.0 0.00 0.00 0.00 61 1007.6
20260505071812 62 0 0.0 0.0 0.00 0.00 0.00 61 1007.6
20260505071711 62 0 0.0 0.0 0.00 0.00 0.00 61 1007.6
20260505071640 62 0 0.0 0.0 0.00 0.00 0.00 61 1007.6
20260505071611 62 0 0.0 0.0 0.00 0.00 0.00 61 1007.6
20260505071536 62 0 0.0 0.0 0.00 0.00 0.00 61 1007.6
20260505071531 62 0 0.0 0.0 0.00 0.00 0.00 61 1007.6
20260505071522 62 0 0.0 0.0 0.00 0.00 0.00 61 1007.6
20260505071520 63 360 0.0 0.0 0.00 0.00 0.00 61 1007.7
20260505071207 62 0 0.0 0.0 0.00 0.00 0.00 61 1007.6
20260505071105 62 0 0.0 0.0 0.00 0.00 0.00 61 1007.7
20260505071020 63 360 0.0 0.0 0.00 0.00 0.00 61 1007.7
20260505071005 63 0 0.0 0.0 0.00 0.00 0.00 61 1007.6
20260505070907 63 0 0.0 0.0 0.00 0.00 0.00 61 1007.7
20260505070900 63 0 0.0 0.0 0.00 0.00 0.00 61 1007.7
20260505070804 63 0 0.0 0.0 0.00 0.00 0.00 60 1007.7
20260505070704 63 0 0.0 0.0 0.00 0.00 0.00 60 1007.7
20260505070603 63 0 0.0 0.0 0.00 0.00 0.00 60 1007.7
20260505070522 63 0 0.0 0.0 0.00 0.00 0.00 60 1007.8
20260505070520 63 360 0.0 0.0 0.00 0.00 0.00 60 1007.8
20260505070516 63 0 0.0 0.0 0.00 0.00 0.00 60 1007.7
20260505070403 63 0 0.0 0.0 0.00 0.00 0.00 60 1007.8
20260505070301 63 0 0.0 0.0 0.00 0.00 0.00 60 1007.7
20260505070201 63 0 0.0 0.0 0.00 0.00 0.00 60 1007.7
20260505070115 63 0 0.0 0.0 0.00 0.00 0.00 60 1007.7
20260505070109 63 0 0.0 0.0 0.00 0.00 0.00 60 1007.7
20260505070050 63 360 0.0 0.0 0.00 0.00 0.00 60 1007.8
20260505065859 63 0 0.0 0.0 0.00 0.00 0.00 60 1007.7
20260505065758 63 0 0.0 0.0 0.00 0.00 0.00 60 1007.6
20260505065658 63 0 0.0 0.0 0.00 0.00 0.00 60 1007.6
20260505065558 63 0 0.0 0.0 0.00 0.00 0.00 60 1007.6
20260505065520 63 360 0.0 0.0 0.00 0.00 0.00 60 1007.7
20260505065457 63 0 0.0 0.0 0.00 0.00 0.00 60 1007.6
20260505065356 63 0 0.0 0.0 0.00 0.00 0.00 60 1007.7
20260505065256 63 0 0.0 0.0 0.00 0.00 0.00 60 1007.6
20260505065209 63 0 0.0 0.0 0.00 0.00 0.00 60 1007.6
20260505065203 63 0 0.0 0.0 0.00 0.00 0.00 60 1007.6
20260505065020 63 360 0.0 0.0 0.00 0.00 0.00 60 1007.7
20260505064954 63 0 0.0 0.0 0.00 0.00 0.00 60 1007.6
20260505064853 63 0 0.0 0.0 0.00 0.00 0.00 60 1007.6
20260505064753 63 0 0.0 0.9 0.00 0.00 0.00 60 1007.6
20260505064652 63 0 0.0 0.9 0.00 0.00 0.00 60 1007.7
20260505064552 63 0 0.0 0.9 0.00 0.00 0.00 60 1007.6
20260505064520 63 360 0.0 0.9 0.00 0.00 0.00 60 1007.7
20260505064451 63 0 0.0 0.9 0.00 0.00 0.00 60 1007.6
20260505064352 63 0 0.0 0.9 0.00 0.00 0.00 60 1007.6
20260505064250 63 0 0.0 0.9 0.00 0.00 0.00 60 1007.6
20260505064150 63 0 0.0 0.9 0.00 0.00 0.00 60 1007.6
20260505064049 63 0 0.0 0.9 0.00 0.00 0.00 60 1007.6
20260505064020 63 360 0.0 0.9 0.00 0.00 0.00 60 1007.7
20260505063949 63 0 0.0 0.9 0.00 0.00 0.00 60 1007.6
20260505063856 63 0 0.0 0.9 0.00 0.00 0.00 60 1007.6
20260505063849 63 0 0.0 1.7 0.00 0.00 0.00 60 1007.6
20260505063748 63 0 0.0 1.7 0.00 0.00 0.00 60 1007.6
20260505063647 63 0 0.0 1.7 0.00 0.00 0.00 60 1007.6
20260505063546 63 0 0.0 1.7 0.00 0.00 0.00 60 1007.6
20260505063519 63 360 0.0 1.7 0.00 0.00 0.00 60 1007.7
20260505063500 62 0 0.0 1.7 0.00 0.00 0.00 60 1007.6
20260505063451 62 0 0.0 1.7 0.00 0.00 0.00 60 1007.6
20260505063245 62 0 0.0 1.7 0.00 0.00 0.00 60 1007.6
20260505063145 62 0 0.0 1.7 0.00 0.00 0.00 60 1007.6
20260505063044 62 0 0.0 1.7 0.00 0.00 0.00 60 1007.6
20260505063020 63 360 0.0 1.7 0.00 0.00 0.00 60 1007.7
20260505062958 62 0 0.0 1.7 0.00 0.00 0.00 60 1007.6
20260505062950 62 0 0.0 1.7 0.00 0.00 0.00 60 1007.6
20260505062743 62 0 0.0 1.7 0.00 0.00 0.00 60 1007.6
20260505062643 62 0 0.0 1.7 0.00 0.00 0.00 60 1007.6
20260505062609 62 0 0.0 1.7 0.00 0.00 0.00 60 1007.7
20260505062543 62 0 0.0 1.7 0.00 0.00 0.00 60 1007.7
20260505062520 63 360 0.0 1.7 0.00 0.00 0.00 60 1007.8
20260505062501 62 0 0.0 1.7 0.00 0.00 0.00 60 1007.7
20260505062341 62 0 0.0 1.7 0.00 0.00 0.00 60 1007.7
20260505062241 62 0 0.0 1.7 0.00 0.00 0.00 60 1007.7
20260505062158 62 0 0.0 1.7 0.00 0.00 0.00 60 1007.7
20260505062154 62 0 0.0 1.7 0.00 0.00 0.00 59 1007.7
20260505062149 62 0 0.0 1.7 0.00 0.00 0.00 60 1007.7
20260505062035 63 360 0.0 0.9 0.00 0.00 0.00 59 1007.8
20260505062000 62 0 0.0 1.7 0.00 0.00 0.00 59 1007.7
20260505061837 62 0 0.0 1.7 0.00 0.00 0.00 59 1007.7
20260505061737 62 0 0.0 1.7 0.00 0.00 0.00 59 1007.6
20260505061637 62 0 0.0 1.7 0.00 0.00 0.00 59 1007.6
20260505061536 62 0 0.0 1.7 0.00 0.00 0.00 59 1007.6
20260505061520 62 360 0.0 5.2 0.00 0.00 0.00 59 1007.7
20260505061436 62 0 0.0 5.2 0.00 0.00 0.00 59 1007.6
20260505061349 62 0 0.0 5.2 0.00 0.00 0.00 59 1007.6
20260505061335 62 0 0.0 5.2 0.00 0.00 0.00 60 1007.6
20260505061235 62 0 0.0 5.2 0.00 0.00 0.00 60 1007.6
20260505061135 62 0 0.0 5.2 0.00 0.00 0.00 60 1007.6
20260505061116 62 0 0.0 5.2 0.00 0.00 0.00 60 1007.6
20260505061110 62 0 0.0 5.2 0.00 0.00 0.00 60 1007.6
20260505061104 62 0 0.0 5.2 0.00 0.00 0.00 60 1007.6
20260505061050 62 360 0.0 5.2 0.00 0.00 0.00 60 1007.7
20260505060833 62 0 0.0 5.2 0.00 0.00 0.00 60 1007.6
20260505060732 62 0 0.0 5.2 0.00 0.00 0.00 60 1007.5
20260505060632 62 0 0.0 9.6 0.00 0.00 0.00 60 1007.5
20260505060605 62 360 0.0 9.6 0.00 0.00 0.00 60 1007.6
20260505060531 62 0 0.0 9.6 0.00 0.00 0.00 60 1007.6
20260505060445 62 0 0.0 9.6 0.00 0.00 0.00 60 1007.5
20260505060437 62 0 0.0 9.6 0.00 0.00 0.00 60 1007.6
20260505060230 62 0 0.0 9.6 0.00 0.00 0.00 60 1007.5
20260505060129 62 0 0.0 9.6 0.00 0.00 0.00 60 1007.6
20260505060043 62 0 0.0 9.6 0.00 0.00 0.00 60 1007.6
20260505060038 62 0 0.0 9.6 0.00 0.00 0.00 60 1007.5
20260505060020 62 360 0.0 9.6 0.00 0.00 0.00 60 1007.7
20260505055827 62 0 0.0 9.6 0.00 0.00 0.00 60 1007.6
20260505055748 62 0 0.0 9.6 0.00 0.00 0.00 60 1007.6
20260505055634 61 0 0.0 7.0 0.00 0.00 0.00 60 1007.6
20260505055520 61 360 0.0 3.5 0.00 0.00 0.00 60 1007.7
20260505055454 61 0 0.0 0.9 0.00 0.00 0.00 60 1007.6
20260505055448 61 0 0.0 3.5 0.00 0.00 0.00 60 1007.6
20260505055440 61 0 0.0 3.5 0.00 0.00 0.00 61 1007.6
20260505055124 61 0 0.0 0.9 0.00 0.00 0.00 60 1007.5
20260505055035 61 360 0.0 5.2 0.00 0.00 0.00 61 1007.6
20260505055023 61 0 0.0 0.9 0.00 0.00 0.00 61 1007.6
20260505054951 61 0 0.0 5.2 0.00 0.00 0.00 60 1007.5
20260505054943 61 0 0.0 5.2 0.00 0.00 0.00 60 1007.5
20260505054832 61 0 0.0 5.2 0.00 0.00 0.00 60 1007.5
20260505054622 61 0 0.0 5.2 0.00 0.00 0.00 60 1007.6
20260505054522 61 0 0.0 5.2 0.00 0.00 0.00 60 1007.6
20260505054520 61 360 0.0 5.2 0.00 0.00 0.00 60 1007.7
20260505054435 61 0 0.0 5.2 0.00 0.00 0.00 60 1007.6
20260505054427 61 0 0.0 5.2 0.00 0.00 0.00 60 1007.6
20260505054219 61 0 0.0 5.2 0.00 0.00 0.00 60 1007.6
20260505054119 61 0 0.0 5.2 0.00 0.00 0.00 60 1007.6
20260505054020 61 360 3.5 3.5 0.00 0.00 0.00 60 1007.6
20260505053918 61 0 0.0 0.0 0.00 0.00 0.00 60 1007.5
20260505053833 61 0 0.0 0.0 0.00 0.00 0.00 60 1007.5
20260505053827 61 0 0.0 0.0 0.00 0.00 0.00 60 1007.6
20260505053617 61 0 0.0 0.0 0.00 0.00 0.00 59 1007.6
20260505053602 61 0 0.0 0.0 0.00 0.00 0.00 59 1007.6
20260505053520 61 360 0.0 0.0 0.00 0.00 0.00 59 1007.7
20260505053516 61 0 0.0 0.0 0.00 0.00 0.00 59 1007.5
20260505053452 61 0 0.0 0.0 0.00 0.00 0.00 59 1007.6
20260505053314 61 0 0.0 0.0 0.00 0.00 0.00 59 1007.6
20260505053214 62 0 0.0 0.0 0.00 0.00 0.00 59 1007.6
20260505053114 62 0 0.0 0.0 0.00 0.00 0.00 58 1007.5
20260505053107 62 0 0.0 0.0 0.00 0.00 0.00 58 1007.5
20260505053020 62 360 0.0 0.0 0.00 0.00 0.00 58 1007.7
20260505053014 62 0 0.0 0.0 0.00 0.00 0.00 58 1007.6
20260505052949 62 0 0.0 0.0 0.00 0.00 0.00 58 1007.5
20260505052812 62 0 0.0 0.0 0.00 0.00 0.00 58 1007.5
20260505052723 62 0 0.0 0.0 0.00 0.00 0.00 58 1007.6
20260505052609 62 0 0.0 0.0 0.00 0.00 0.00 58 1007.6
20260505052520 62 360 0.0 0.0 0.00 0.00 0.00 58 1007.6
20260505052509 62 0 0.0 0.0 0.00 0.00 0.00 58 1007.5
20260505052448 62 0 0.0 0.9 0.00 0.00 0.00 58 1007.6
20260505052308 62 0 0.0 0.9 0.00 0.00 0.00 58 1007.7
20260505052207 62 0 0.0 0.9 0.00 0.00 0.00 57 1007.6
20260505052107 62 0 0.0 0.9 0.00 0.00 0.00 57 1007.6
20260505052020 62 360 0.0 0.9 0.00 0.00 0.00 58 1007.8
20260505052006 62 0 0.0 0.9 0.00 0.00 0.00 58 1007.7
20260505051906 62 0 0.0 0.9 0.00 0.00 0.00 57 1007.7
20260505051841 62 0 0.0 0.9 0.00 0.00 0.00 57 1007.7
20260505051806 62 0 0.0 0.9 0.00 0.00 0.00 57 1007.7
20260505051705 62 0 0.0 0.9 0.00 0.00 0.00 57 1007.6
20260505051605 62 0 0.0 0.9 0.00 0.00 0.00 57 1007.7
20260505051520 62 360 0.0 0.9 0.00 0.00 0.00 57 1007.8
20260505051503 62 0 0.0 0.9 0.00 0.00 0.00 57 1007.7
20260505051340 62 0 0.0 0.0 0.00 0.00 0.00 57 1007.6
20260505051301 62 0 0.0 0.0 0.00 0.00 0.00 57 1007.7
20260505051201 62 0 0.0 0.0 0.00 0.00 0.00 57 1007.7
20260505051100 62 0 0.0 0.0 0.00 0.00 0.00 57 1007.7
20260505051020 62 360 0.0 0.0 0.00 0.00 0.00 57 1007.8
20260505051000 62 0 0.0 0.0 0.00 0.00 0.00 57 1007.7
20260505050838 62 0 0.0 0.0 0.00 0.00 0.00 56 1007.7
20260505050759 62 0 0.0 0.0 0.00 0.00 0.00 56 1007.7
20260505050659 62 0 0.0 0.0 0.00 0.00 0.00 56 1007.7
20260505050558 62 0 0.0 0.0 0.00 0.00 0.00 56 1007.7
20260505050535 62 360 0.0 0.0 0.00 0.00 0.00 56 1007.8
20260505050459 62 0 0.0 0.0 0.00 0.00 0.00 56 1007.7
20260505050336 62 0 0.0 0.0 0.00 0.00 0.00 56 1007.7
20260505050258 62 0 0.0 0.0 0.00 0.00 0.00 56 1007.7
20260505050158 62 0 0.0 0.0 0.00 0.00 0.00 56 1007.8
20260505050110 62 0 0.0 0.0 0.00 0.00 0.00 56 1007.8
20260505050105 62 0 0.0 0.0 0.00 0.00 0.00 56 1007.7
20260505041734 63 0 0.0 5.2 0.00 0.00 0.00 51 1007.7
20260505041634 63 0 0.0 5.2 0.00 0.00 0.00 51 1007.7
20260505041535 63 360 0.0 7.0 0.00 0.00 0.00 51 1007.7
20260505041533 63 0 0.9 7.0 0.00 0.00 0.00 51 1007.7
20260505041433 63 0 0.9 7.0 0.00 0.00 0.00 51 1007.7
20260505041326 63 0 0.9 7.0 0.00 0.00 0.00 51 1007.7
20260505041230 64 0 0.9 7.0 0.00 0.00 0.00 51 1007.7
20260505041130 64 0 0.9 7.0 0.00 0.00 0.00 51 1007.6
20260505041109 64 0 0.9 7.0 0.00 0.00 0.00 51 1007.7
20260505041020 64 360 0.0 7.0 0.00 0.00 0.00 51 1007.5
20260505040957 64 0 0.9 7.0 0.00 0.00 0.00 51 1007.6
20260505040951 64 0 0.9 7.0 0.00 0.00 0.00 51 1007.5
20260505040838 64 0 0.9 7.0 0.00 0.00 0.00 51 1007.6
20260505040627 64 0 0.9 15.6 0.00 0.00 0.00 50 1007.6
20260505040540 64 0 0.9 15.6 0.00 0.00 0.00 50 1007.5
20260505040535 64 0 0.9 15.6 0.00 0.00 0.00 50 1007.5
20260505040520 64 360 0.0 15.6 0.00 0.00 0.00 50 1007.5
20260505040345 64 0 0.9 15.6 0.00 0.00 0.00 50 1007.5
20260505040335 64 0 0.9 15.6 0.00 0.00 0.00 50 1007.5
20260505040124 64 0 0.9 15.6 0.00 0.00 0.00 50 1007.5
20260505040035 64 360 0.0 15.6 0.00 0.00 0.00 50 1007.5
20260505040022 64 0 0.9 15.6 0.00 0.00 0.00 50 1007.4
20260505035922 64 0 0.9 15.6 0.00 0.00 0.00 50 1007.5
20260505035821 64 0 0.9 15.6 0.00 0.00 0.00 50 1007.4
20260505035721 64 0 0.9 15.6 0.00 0.00 0.00 50 1007.5
20260505035619 64 0 0.9 15.6 0.00 0.00 0.00 50 1007.4
20260505035520 64 360 0.0 15.6 0.00 0.00 0.00 50 1007.4
20260505035419 64 0 0.9 15.6 0.00 0.00 0.00 49 1007.4
20260505035316 64 0 0.9 15.6 0.00 0.00 0.00 49 1007.4
20260505035216 64 0 0.9 15.6 0.00 0.00 0.00 49 1007.4
20260505035115 64 0 0.0 15.6 0.00 0.00 0.00 49 1007.4
20260505035020 64 360 0.0 7.0 0.00 0.00 0.00 49 1007.5
20260505035014 64 0 0.9 7.0 0.00 0.00 0.00 49 1007.5
20260505034915 64 0 0.9 10.4 0.00 0.00 0.00 49 1007.5
20260505034821 64 0 0.9 10.4 0.00 0.00 0.00 49 1007.5
20260505034814 64 0 0.9 10.4 0.00 0.00 0.00 49 1007.4
20260505034714 64 0 0.9 10.4 0.00 0.00 0.00 49 1007.5
20260505034614 64 0 0.9 13.0 0.00 0.00 0.00 49 1007.6
20260505034520 64 360 0.0 10.4 0.00 0.00 0.00 49 1007.5
20260505034513 64 0 0.9 13.0 0.00 0.00 0.00 49 1007.5
20260505034414 64 0 0.9 13.0 0.00 0.00 0.00 49 1007.5
20260505034320 64 0 0.9 13.0 0.00 0.00 0.00 49 1007.5
20260505034313 65 0 1.7 13.0 0.00 0.00 0.00 49 1007.5
20260505034212 64 0 1.7 13.0 0.00 0.00 0.00 49 1007.5
20260505034112 65 0 1.7 13.0 0.00 0.00 0.00 49 1007.4
20260505034020 65 360 2.6 10.4 0.00 0.00 0.00 49 1007.4
20260505034011 65 0 0.9 13.0 0.00 0.00 0.00 49 1007.4
20260505033910 65 0 0.9 13.0 0.00 0.00 0.00 49 1007.4
20260505033822 65 0 0.9 13.0 0.00 0.00 0.00 48 1007.4
20260505033809 65 0 1.7 13.0 0.00 0.00 0.00 48 1007.5
20260505033709 65 0 1.7 13.0 0.00 0.00 0.00 48 1007.4
20260505033609 65 0 1.7 11.3 0.00 0.00 0.00 48 1007.5
20260505033535 65 360 0.0 10.4 0.00 0.00 0.00 48 1007.4
20260505033509 65 0 0.9 11.3 0.00 0.00 0.00 48 1007.4
20260505033407 65 0 0.9 11.3 0.00 0.00 0.00 48 1007.4
20260505033321 65 0 0.9 11.3 0.00 0.00 0.00 48 1007.4
20260505033307 65 0 0.9 11.3 0.00 0.00 0.00 48 1007.5
20260505033207 65 0 0.9 11.3 0.00 0.00 0.00 48 1007.5
20260505033107 65 0 1.7 11.3 0.00 0.00 0.00 48 1007.5
20260505033020 65 360 0.0 11.3 0.00 0.00 0.00 48 1007.5
20260505033008 65 0 1.7 11.3 0.00 0.00 0.00 48 1007.5
20260505032905 65 0 1.7 13.0 0.00 0.00 0.00 48 1007.4
20260505032805 65 0 1.7 13.0 0.00 0.00 0.00 48 1007.4
20260505032740 65 0 1.7 13.0 0.00 0.00 0.00 47 1007.5
20260505032734 65 0 0.9 13.0 0.00 0.00 0.00 48 1007.5
20260505032621 65 0 0.9 13.0 0.00 0.00 0.00 48 1007.5
20260505032535 65 360 0.0 13.0 0.00 0.00 0.00 47 1007.5
20260505032319 65 0 1.7 13.0 0.00 0.00 0.00 48 1007.5
20260505032304 65 0 0.9 13.0 0.00 0.00 0.00 48 1007.5
20260505032202 65 0 0.9 13.0 0.00 0.00 0.00 47 1007.5
20260505032122 65 0 0.9 13.0 0.00 0.00 0.00 47 1007.5
20260505032035 65 360 2.6 13.0 0.00 0.00 0.00 47 1007.5
20260505032009 65 0 0.0 13.0 0.00 0.00 0.00 47 1007.5
20260505031820 65 0 0.0 8.7 0.00 0.00 0.00 47 1007.5
20260505031800 65 0 0.0 8.7 0.00 0.00 0.00 47 1007.5
20260505031659 65 0 0.0 8.7 0.00 0.00 0.00 47 1007.5
20260505031559 65 0 0.0 8.7 0.00 0.00 0.00 47 1007.5
20260505031520 65 360 0.0 8.7 0.00 0.00 0.00 47 1007.5
20260505031458 65 0 0.0 8.7 0.00 0.00 0.00 47 1007.5
20260505031357 65 0 0.0 3.5 0.00 0.00 0.00 47 1007.5
20260505031317 65 0 0.0 3.5 0.00 0.00 0.00 47 1007.5
20260505031256 65 0 0.0 3.5 0.00 0.00 0.00 47 1007.6
20260505031156 65 0 0.0 3.5 0.00 0.00 0.00 47 1007.6
20260505031055 65 0 0.0 3.5 0.00 0.00 0.00 47 1007.6
20260505031020 65 360 0.0 5.2 0.00 0.00 0.00 46 1007.5
20260505030952 65 0 0.0 5.2 0.00 0.00 0.00 47 1007.5
20260505030852 65 0 0.0 5.2 0.00 0.00 0.00 46 1007.5
20260505030821 65 0 0.0 5.2 0.00 0.00 0.00 46 1007.5
20260505030814 65 0 0.0 5.2 0.00 0.00 0.00 46 1007.6
20260505030701 65 0 0.0 5.2 0.00 0.00 0.00 46 1007.6
20260505030520 65 360 0.0 5.2 0.00 0.00 0.00 46 1007.5
20260505030452 65 0 0.0 5.2 0.00 0.00 0.00 46 1007.5
20260505030352 65 0 0.0 5.2 0.00 0.00 0.00 46 1007.5
20260505030317 65 0 0.0 5.2 0.00 0.00 0.00 46 1007.5
20260505030251 65 0 0.0 5.2 0.00 0.00 0.00 46 1007.5
20260505030151 65 0 0.0 5.2 0.00 0.00 0.00 46 1007.5
20260505030051 65 0 0.0 5.2 0.00 0.00 0.00 47 1007.5
20260505030020 65 360 0.9 3.5 0.00 0.00 0.00 47 1007.5
20260505025949 65 0 0.0 3.5 0.00 0.00 0.00 47 1007.5
20260505025848 65 0 0.0 3.5 0.00 0.00 0.00 46 1007.5
20260505025816 65 0 0.0 3.5 0.00 0.00 0.00 46 1007.5
20260505025810 65 0 0.0 3.5 0.00 0.00 0.00 46 1007.5
20260505025656 65 0 0.0 3.5 0.00 0.00 0.00 47 1007.5
20260505025520 65 360 2.6 4.3 0.00 0.00 0.00 47 1007.4
20260505025447 65 0 0.9 4.3 0.00 0.00 0.00 47 1007.4
20260505025347 65 0 0.9 8.7 0.00 0.00 0.00 46 1007.5
20260505025314 65 0 0.9 8.7 0.00 0.00 0.00 46 1007.5
20260505025246 65 0 0.9 8.7 0.00 0.00 0.00 46 1007.5
20260505025145 65 0 0.9 8.7 0.00 0.00 0.00 46 1007.5
20260505025044 65 0 0.9 8.7 0.00 0.00 0.00 46 1007.5
20260505025020 65 360 0.0 8.7 0.00 0.00 0.00 46 1007.5
20260505024942 65 0 0.9 8.7 0.00 0.00 0.00 46 1007.5
20260505024814 65 0 0.9 8.7 0.00 0.00 0.00 46 1007.6
20260505024743 65 0 0.9 8.7 0.00 0.00 0.00 46 1007.6
20260505024643 65 0 0.9 8.7 0.00 0.00 0.00 46 1007.6
20260505024540 65 0 0.9 8.7 0.00 0.00 0.00 46 1007.6
20260505024535 65 360 0.0 8.7 0.00 0.00 0.00 46 1007.6
20260505024440 65 0 0.9 8.7 0.00 0.00 0.00 46 1007.6
20260505024359 65 0 0.9 7.0 0.00 0.00 0.00 46 1007.7
20260505024347 65 0 0.9 7.0 0.00 0.00 0.00 46 1007.7
20260505024138 65 0 0.9 7.0 0.00 0.00 0.00 46 1007.7
20260505024051 65 0 0.9 7.0 0.00 0.00 0.00 46 1007.7
20260505024046 65 0 0.9 7.0 0.00 0.00 0.00 46 1007.8
20260505024021 65 360 0.0 7.0 0.00 0.00 0.00 46 1007.7
20260505023837 65 0 0.9 7.0 0.00 0.00 0.00 46 1007.8
20260505023814 65 0 0.0 7.0 0.00 0.00 0.00 46 1007.8
20260505023735 65 0 0.0 7.0 0.00 0.00 0.00 46 1007.8
20260505023635 65 0 0.0 7.0 0.00 0.00 0.00 46 1007.8
20260505023534 65 0 0.0 7.0 0.00 0.00 0.00 46 1007.8
20260505023520 65 360 4.3 7.0 0.00 0.00 0.00 46 1007.8
20260505023434 65 0 0.0 4.3 0.00 0.00 0.00 46 1007.8
20260505023353 65 0 0.0 5.2 0.00 0.00 0.00 46 1007.8
20260505023348 65 0 0.0 4.3 0.00 0.00 0.00 46 1007.8
20260505023341 65 0 0.0 5.2 0.00 0.00 0.00 46 1007.8
20260505023133 65 0 0.0 5.2 0.00 0.00 0.00 46 1007.8
20260505023100 65 0 0.0 5.2 0.00 0.00 0.00 46 1007.8
20260505023056 65 0 0.0 5.2 0.00 0.00 0.00 46 1007.8
20260505023051 65 0 0.0 5.2 0.00 0.00 0.00 46 1007.8
20260505023020 65 360 0.0 5.2 0.00 0.00 0.00 46 1007.8
20260505022810 65 0 0.0 5.2 0.00 0.00 0.00 46 1007.8
20260505022731 65 0 0.0 5.2 0.00 0.00 0.00 46 1007.8
20260505022630 65 0 0.0 5.2 0.00 0.00 0.00 46 1007.8
20260505022535 65 360 0.0 5.2 0.00 0.00 0.00 46 1007.9
20260505022530 65 0 0.0 5.2 0.00 0.00 0.00 46 1007.9
20260505022430 65 0 0.0 5.2 0.00 0.00 0.00 46 1007.9
20260505022329 65 0 0.0 5.2 0.00 0.00 0.00 46 1007.8
20260505022310 65 0 0.0 4.3 0.00 0.00 0.00 46 1007.9
20260505022229 65 0 0.0 4.3 0.00 0.00 0.00 46 1007.9
20260505022127 65 0 0.0 4.3 0.00 0.00 0.00 46 1007.8
20260505022027 65 0 0.0 4.3 0.00 0.00 0.00 46 1007.9
20260505022020 65 360 0.0 4.3 0.00 0.00 0.00 46 1007.8
20260505021943 65 0 0.0 5.2 0.00 0.00 0.00 46 1007.9
20260505021937 65 0 0.0 4.3 0.00 0.00 0.00 46 1007.8
20260505021809 65 0 0.0 5.2 0.00 0.00 0.00 46 1007.9
20260505021741 65 0 0.0 5.2 0.00 0.00 0.00 46 1007.9
20260505021736 65 0 0.0 5.2 0.00 0.00 0.00 46 1007.9
20260505021525 65 0 0.0 5.2 0.00 0.00 0.00 46 1007.9
20260505021520 65 360 0.0 5.2 0.00 0.00 0.00 46 1007.9
20260505021425 65 0 0.0 5.2 0.00 0.00 0.00 47 1007.9
20260505021308 65 0 0.0 5.2 0.00 0.00 0.00 46 1007.9
20260505021222 65 0 0.0 5.2 0.00 0.00 0.00 46 1007.9
20260505021122 65 0 0.0 5.2 0.00 0.00 0.00 46 1007.9
20260505021050 65 360 0.0 7.8 0.00 0.00 0.00 46 1007.8
20260505021019 65 0 0.9 7.8 0.00 0.00 0.00 46 1007.9
20260505020920 65 0 0.9 7.8 0.00 0.00 0.00 46 1007.8
20260505020819 65 0 0.9 7.8 0.00 0.00 0.00 46 1007.9
20260505020809 65 0 0.0 7.8 0.00 0.00 0.00 46 1007.8
20260505020719 65 0 0.0 7.8 0.00 0.00 0.00 46 1007.8
20260505020618 65 0 0.0 7.8 0.00 0.00 0.00 46 1007.9
20260505020535 65 360 0.0 7.8 0.00 0.00 0.00 46 1007.9
20260505020531 65 0 0.0 7.8 0.00 0.00 0.00 46 1007.9
20260505020526 65 0 0.0 7.8 0.00 0.00 0.00 46 1007.9
20260505020309 65 0 0.0 7.8 0.00 0.00 0.00 46 1007.9
20260505020215 65 0 0.0 7.8 0.00 0.00 0.00 46 1007.9
20260505020115 65 0 0.0 7.8 0.00 0.00 0.00 46 1007.9
20260505020020 65 360 0.0 0.9 0.00 0.00 0.00 46 1007.9
20260505020012 65 0 0.0 0.9 0.00 0.00 0.00 46 1007.9
20260505015929 65 0 0.0 1.7 0.00 0.00 0.00 46 1007.8
20260505015924 65 0 0.0 0.9 0.00 0.00 0.00 46 1007.9
20260505015808 65 0 0.0 1.7 0.00 0.00 0.00 46 1007.8
20260505015711 65 0 0.0 1.7 0.00 0.00 0.00 46 1007.9
20260505015611 65 0 0.0 1.7 0.00 0.00 0.00 46 1007.8
20260505015520 65 360 0.0 1.7 0.00 0.00 0.00 46 1007.8
20260505015511 65 0 0.0 1.7 0.00 0.00 0.00 46 1007.9
20260505015427 65 0 0.0 1.7 0.00 0.00 0.00 46 1007.8
20260505015422 65 0 0.0 1.7 0.00 0.00 0.00 46 1007.8
20260505015306 65 0 0.0 1.7 0.00 0.00 0.00 46 1007.8
20260505015224 65 0 0.0 5.2 0.00 0.00 0.00 45 1007.8
20260505015219 65 0 0.0 5.2 0.00 0.00 0.00 46 1007.8
20260505015020 66 360 0.9 5.2 0.00 0.00 0.00 45 1007.7
20260505015009 65 0 0.0 5.2 0.00 0.00 0.00 45 1007.8
20260505014908 66 0 0.0 5.2 0.00 0.00 0.00 46 1007.8
20260505014810 66 0 0.0 5.2 0.00 0.00 0.00 45 1007.8
20260505014708 66 0 0.0 5.2 0.00 0.00 0.00 45 1007.9
20260505014608 66 0 0.0 5.2 0.00 0.00 0.00 46 1007.8
20260505014550 66 360 0.0 5.2 0.00 0.00 0.00 45 1007.7
20260505014507 66 0 0.0 5.2 0.00 0.00 0.00 45 1007.8
20260505014407 66 0 0.0 5.2 0.00 0.00 0.00 45 1007.8
20260505014307 66 0 0.0 5.2 0.00 0.00 0.00 45 1007.8
20260505014206 66 0 0.0 1.7 0.00 0.00 0.00 45 1007.9
20260505014106 66 0 0.0 1.7 0.00 0.00 0.00 45 1007.9
20260505014033 66 0 0.0 2.6 0.00 0.00 0.00 45 1007.9
20260505014020 66 360 0.0 1.7 0.00 0.00 0.00 45 1007.8
20260505014005 66 0 0.0 1.7 0.00 0.00 0.00 45 1007.9
20260505013919 66 0 0.0 2.6 0.00 0.00 0.00 45 1007.9
20260505013804 66 0 0.0 2.6 0.00 0.00 0.00 45 1007.9
20260505013704 66 0 0.0 2.6 0.00 0.00 0.00 45 1007.9
20260505013604 66 0 0.0 2.6 0.00 0.00 0.00 45 1007.9
20260505013521 66 360 0.0 7.8 0.00 0.00 0.00 45 1007.8
20260505013515 66 0 0.0 7.8 0.00 0.00 0.00 45 1007.9
20260505013511 66 0 0.0 7.8 0.00 0.00 0.00 45 1007.9
20260505013307 66 0 0.0 7.8 0.00 0.00 0.00 45 1007.9
20260505013301 66 0 0.0 7.8 0.00 0.00 0.00 45 1007.9
20260505013203 66 0 0.0 7.8 0.00 0.00 0.00 45 1007.9
20260505013113 65 0 0.0 7.8 0.00 0.00 0.00 45 1007.9
20260505013109 65 0 0.0 7.8 0.00 0.00 0.00 45 1007.9
20260505013020 66 360 0.0 7.8 0.00 0.00 0.00 45 1007.8
20260505012900 65 0 0.0 7.8 0.00 0.00 0.00 46 1007.9
20260505012805 65 0 0.0 7.8 0.00 0.00 0.00 46 1007.9
20260505012759 65 0 0.0 7.8 0.00 0.00 0.00 46 1007.9
20260505012659 65 0 0.0 7.8 0.00 0.00 0.00 46 1007.9
20260505012557 65 0 0.0 7.8 0.00 0.00 0.00 46 1007.8
20260505012520 65 360 7.8 7.8 0.00 0.00 0.00 46 1007.8
20260505012511 65 0 0.0 3.5 0.00 0.00 0.00 46 1007.9
20260505012507 65 0 0.0 4.3 0.00 0.00 0.00 46 1007.9
20260505012315 65 0 0.0 3.5 0.00 0.00 0.00 46 1007.9
20260505012311 65 0 0.0 3.5 0.00 0.00 0.00 46 1007.9
20260505012306 65 0 0.0 3.5 0.00 0.00 0.00 46 1007.9
20260505012056 65 0 0.0 3.5 0.00 0.00 0.00 46 1007.9
20260505012020 65 360 0.0 3.5 0.00 0.00 0.00 46 1007.8
20260505011956 65 0 0.0 3.5 0.00 0.00 0.00 46 1007.9
20260505011856 65 0 0.0 3.5 0.00 0.00 0.00 46 1007.8
20260505011815 65 0 0.0 3.5 0.00 0.00 0.00 46 1007.9
20260505011702 65 0 0.0 3.5 0.00 0.00 0.00 46 1007.8
20260505011535 65 360 0.0 0.0 0.00 0.00 0.00 46 1007.7
20260505011452 64 0 0.0 0.0 0.00 0.00 0.00 46 1007.8
20260505011352 64 0 0.0 0.0 0.00 0.00 0.00 46 1007.8
20260505011252 64 0 0.0 0.0 0.00 0.00 0.00 46 1007.8
20260505011216 64 0 0.0 0.0 0.00 0.00 0.00 47 1007.8
20260505011212 64 0 0.0 0.0 0.00 0.00 0.00 47 1007.8
20260505011208 64 0 0.0 0.0 0.00 0.00 0.00 47 1007.8
20260505011035 64 360 0.0 0.0 0.00 0.00 0.00 47 1007.7
20260505010849 64 0 0.0 0.0 0.00 0.00 0.00 47 1007.8
20260505010748 64 0 0.0 0.0 0.00 0.00 0.00 47 1007.7
20260505010648 64 0 0.0 0.0 0.00 0.00 0.00 47 1007.7
20260505010547 64 0 0.0 0.0 0.00 0.00 0.00 47 1007.6
20260505010535 64 360 0.0 0.0 0.00 0.00 0.00 47 1007.5
20260505010446 64 0 0.0 0.0 0.00 0.00 0.00 47 1007.6
20260505010242 64 0 0.0 0.0 0.00 0.00 0.00 47 1007.6
20260505010142 64 0 0.0 0.0 0.00 0.00 0.00 47 1007.5
20260505010041 64 0 0.0 0.0 0.00 0.00 0.00 47 1007.5
20260505010020 64 360 0.0 0.0 0.00 0.00 0.00 47 1007.4
20260505005941 64 0 0.0 0.0 0.00 0.00 0.00 48 1007.5
20260505005842 64 0 0.0 0.0 0.00 0.00 0.00 47 1007.4
20260505005741 64 0 0.0 0.0 0.00 0.00 0.00 47 1007.5
20260505005641 64 0 0.0 0.0 0.00 0.00 0.00 47 1007.4
20260505005541 64 0 0.0 0.0 0.00 0.00 0.00 47 1007.5
20260505005535 64 360 0.0 0.0 0.00 0.00 0.00 47 1007.4
20260505005533 65 0 0.0 0.0 0.00 0.00 0.00 46 1007.4
20260505005527 64 0 0.0 0.0 0.00 0.00 0.00 47 1007.5
20260505005415 65 0 0.0 0.0 0.00 0.00 0.00 46 1007.4
20260505005410 65 0 0.0 0.0 0.00 0.00 0.00 47 1007.5
20260505005401 65 0 0.0 0.0 0.00 0.00 0.00 46 1007.4
20260505005020 65 360 0.0 0.0 0.00 0.00 0.00 46 1007.3
20260505004937 65 0 0.0 0.0 0.00 0.00 0.00 46 1007.4
20260505004850 65 0 0.0 0.0 0.00 0.00 0.00 46 1007.3
20260505004841 65 0 0.0 0.0 0.00 0.00 0.00 45 1007.4
20260505004635 65 0 0.0 0.0 0.00 0.00 0.00 46 1007.3
20260505004547 65 0 0.0 0.0 0.00 0.00 0.00 45 1007.4
20260505004543 65 0 0.0 0.0 0.00 0.00 0.00 45 1007.3
20260505004520 65 360 0.0 0.0 0.00 0.00 0.00 45 1007.3
20260505004333 65 0 0.0 0.0 0.00 0.00 0.00 44 1007.3
20260505004232 66 0 0.0 0.0 0.00 0.00 0.00 44 1007.3
20260505004132 66 0 0.0 0.0 0.00 0.00 0.00 44 1007.3
20260505004032 66 0 0.0 0.0 0.00 0.00 0.00 44 1007.3
20260505004020 66 360 0.0 0.0 0.00 0.00 0.00 44 1007.1
20260505003932 66 0 0.0 0.0 0.00 0.00 0.00 44 1007.2
20260505003846 66 0 0.0 0.0 0.00 0.00 0.00 44 1007.3
20260505003837 66 0 0.0 0.0 0.00 0.00 0.00 44 1007.3
20260505003631 66 0 0.0 0.0 0.00 0.00 0.00 44 1007.3
20260505003535 66 360 0.0 0.0 0.00 0.00 0.00 43 1007.2
20260505003530 66 0 0.0 0.0 0.00 0.00 0.00 43 1007.3
20260505003429 66 0 0.0 0.0 0.00 0.00 0.00 43 1007.3
20260505003329 66 0 0.0 0.0 0.00 0.00 0.00 43 1007.2
20260505003229 67 0 0.0 0.0 0.00 0.00 0.00 43 1007.2
20260505003129 67 0 0.0 0.0 0.00 0.00 0.00 43 1007.3
20260505003028 67 0 0.0 0.0 0.00 0.00 0.00 42 1007.2
20260505003020 67 360 0.0 0.0 0.00 0.00 0.00 42 1007.2
20260505002928 67 0 0.0 0.0 0.00 0.00 0.00 42 1007.3
20260505002827 67 0 0.0 0.0 0.00 0.00 0.00 42 1007.2
20260505002727 67 0 0.0 0.0 0.00 0.00 0.00 42 1007.2
20260505002626 67 0 0.0 0.0 0.00 0.00 0.00 42 1007.2
20260505002525 67 0 0.0 0.0 0.00 0.00 0.00 42 1007.2
20260505002520 67 360 0.0 0.0 0.00 0.00 0.00 42 1007.2
20260505002514 67 0 0.0 0.0 0.00 0.00 0.00 42 1007.3
20260505002425 67 0 0.0 0.0 0.00 0.00 0.00 42 1007.3
20260505002358 67 0 0.0 0.0 0.00 0.00 0.00 42 1007.3
20260505002236 67 0 0.0 0.0 0.00 0.00 0.00 41 1007.3
20260505002232 67 0 0.0 0.0 0.00 0.00 0.00 42 1007.3
20260505002022 67 0 0.0 0.0 0.00 0.00 0.00 41 1007.3
20260505002020 67 360 0.0 0.0 0.00 0.00 0.00 41 1007.2
20260505001922 67 0 0.0 0.0 0.00 0.00 0.00 41 1007.3
20260505001822 67 0 0.0 0.0 0.00 0.00 0.00 41 1007.3
20260505001722 67 0 0.0 0.0 0.00 0.00 0.00 41 1007.2
20260505001621 67 0 0.0 0.0 0.00 0.00 0.00 41 1007.2
20260505001550 67 360 0.0 0.0 0.00 0.00 0.00 41 1007.1
20260505001521 67 0 0.0 0.0 0.00 0.00 0.00 41 1007.2
20260505001421 67 0 0.0 0.0 0.00 0.00 0.00 41 1007.2
20260505001320 67 0 0.0 0.0 0.00 0.00 0.00 41 1007.2
20260505001220 67 0 0.0 0.0 0.00 0.00 0.00 41 1007.1
20260505001119 67 0 0.0 0.0 0.00 0.00 0.00 41 1007.1
20260505001105 68 360 0.0 0.0 0.00 0.00 0.00 41 1007.0
20260505001018 67 0 0.0 0.0 0.00 0.00 0.00 41 1007.1
20260505001009 68 0 0.0 0.0 0.00 0.00 0.00 41 1007.1
20260505000918 67 0 0.0 0.0 0.00 0.00 0.00 41 1007.1
20260505000854 68 0 0.0 0.0 0.00 0.00 0.00 41 1007.1
20260505000717 68 0 0.0 0.0 0.00 0.00 0.00 41 1007.1
20260505000616 68 0 0.0 0.0 0.00 0.00 0.00 41 1007.1
20260505000535 68 360 0.0 0.0 0.00 0.00 0.00 41 1007.0
20260505000515 68 0 0.0 0.0 0.00 0.00 0.00 41 1007.1
20260505000416 68 0 0.0 0.0 0.00 0.00 0.00 41 1007.1
20260505000314 68 0 0.0 0.0 0.00 0.00 0.00 41 1007.1
20260505000215 68 0 0.0 0.0 0.00 0.00 0.00 41 1007.1
20260505000113 68 0 0.0 0.0 0.00 0.00 0.00 41 1007.1
20260505000020 68 360 0.0 0.0 0.00 0.00 0.00 40 1006.9
20260505000013 68 0 0.0 0.0 0.00 0.00 0.00 40 1007.0
20260504235913 68 0 0.0 0.0 0.00 0.00 0.00 40 1007.1
20260504235824 68 0 0.0 0.0 0.00 0.00 0.00 40 1007.1
20260504235816 68 0 0.0 0.0 0.00 0.00 0.00 41 1007.1
20260504235635 68 0 0.0 0.0 0.00 0.00 0.00 40 1007.1
20260504235522 68 0 0.0 0.0 0.00 0.00 0.00 40 1007.0
20260504235520 68 360 0.0 0.0 0.00 0.00 0.00 40 1007.0
20260504235517 68 0 0.0 0.0 0.00 0.00 0.00 40 1007.1
20260504235348 68 0 0.0 0.0 0.00 0.00 0.00 40 1007.0
20260504235207 68 0 0.0 0.0 0.00 0.00 0.00 40 1007.1
20260504235107 68 0 0.0 0.0 0.00 0.00 0.00 40 1007.1
20260504235020 68 360 0.0 0.0 0.00 0.00 0.00 39 1006.9
20260504235007 68 0 0.0 0.0 0.00 0.00 0.00 39 1007.0
20260504234906 68 0 0.0 0.0 0.00 0.00 0.00 39 1007.1
20260504234806 68 0 0.0 0.0 0.00 0.00 0.00 40 1007.1
20260504234738 68 0 0.0 0.0 0.00 0.00 0.00 40 1007.1
20260504234707 69 0 0.0 0.0 0.00 0.00 0.00 40 1007.0
20260504234605 69 0 0.0 0.0 0.00 0.00 0.00 40 1007.0
20260504234520 69 360 0.0 0.0 0.00 0.00 0.00 40 1006.9
20260504234505 69 0 0.0 0.0 0.00 0.00 0.00 40 1007.0
20260504234457 69 0 0.0 0.0 0.00 0.00 0.00 40 1007.0
20260504234405 69 0 0.0 0.0 0.00 0.00 0.00 40 1007.0
20260504234346 69 0 0.0 0.0 0.00 0.00 0.00 40 1007.0
20260504234217 69 0 0.0 0.0 0.00 0.00 0.00 39 1007.0
20260504234213 69 0 0.0 0.0 0.00 0.00 0.00 39 1007.0
20260504234020 69 360 0.0 0.9 0.00 0.00 0.00 39 1006.9
20260504234013 69 0 0.0 0.9 0.00 0.00 0.00 39 1007.0
20260504234009 69 0 0.0 0.9 0.00 0.00 0.00 39 1007.0
20260504233819 69 0 0.0 7.0 0.00 0.00 0.00 39 1006.9
20260504233814 69 0 0.0 0.9 0.00 0.00 0.00 39 1007.0
20260504233806 69 0 0.0 1.7 0.00 0.00 0.00 39 1007.0
20260504233559 69 0 0.0 7.0 0.00 0.00 0.00 39 1007.0
20260504233520 69 360 0.0 7.0 0.00 0.00 0.00 39 1006.9
20260504233512 69 0 0.0 7.0 0.00 0.00 0.00 39 1007.0
20260504233508 69 0 0.0 7.0 0.00 0.00 0.00 39 1007.0
20260504233315 69 0 0.0 7.0 0.00 0.00 0.00 38 1007.0
20260504233204 69 0 0.0 7.0 0.00 0.00 0.00 38 1007.0
20260504233020 69 360 0.0 7.0 0.00 0.00 0.00 38 1006.8
20260504233008 69 0 0.0 7.0 0.00 0.00 0.00 38 1006.9
20260504233004 69 0 0.0 7.0 0.00 0.00 0.00 38 1006.9
20260504232737 69 0 0.0 7.0 0.00 0.00 0.00 38 1007.0
20260504232653 69 0 0.0 5.2 0.00 0.00 0.00 39 1007.0
20260504232553 69 0 0.0 5.2 0.00 0.00 0.00 38 1007.0
20260504232520 70 360 0.0 5.2 0.00 0.00 0.00 38 1006.8
20260504232452 69 0 0.0 3.5 0.00 0.00 0.00 38 1007.0
20260504232351 70 0 0.0 5.2 0.00 0.00 0.00 38 1007.0
20260504232235 70 0 0.0 7.8 0.00 0.00 0.00 38 1007.0
20260504232151 70 0 0.0 7.8 0.00 0.00 0.00 38 1007.0
20260504232050 70 0 0.0 7.8 0.00 0.00 0.00 38 1007.0
20260504232020 70 360 0.0 5.2 0.00 0.00 0.00 38 1006.8
20260504231950 70 0 0.0 7.8 0.00 0.00 0.00 37 1007.0
20260504231848 70 0 0.0 7.8 0.00 0.00 0.00 38 1007.0
20260504231736 70 0 0.0 7.8 0.00 0.00 0.00 38 1007.0
20260504231701 70 0 0.9 7.8 0.00 0.00 0.00 37 1006.9
20260504231657 70 0 0.9 7.8 0.00 0.00 0.00 38 1007.0
20260504231520 70 360 0.0 5.2 0.00 0.00 0.00 37 1006.8
20260504231446 70 0 0.9 7.8 0.00 0.00 0.00 37 1007.0
20260504231347 70 0 0.0 7.8 0.00 0.00 0.00 37 1007.0
20260504231234 70 0 0.0 7.0 0.00 0.00 0.00 37 1006.9
20260504231146 70 0 0.9 7.0 0.00 0.00 0.00 37 1007.0
20260504231046 70 0 0.9 7.8 0.00 0.00 0.00 37 1007.0
20260504231020 70 360 0.0 7.8 0.00 0.00 0.00 37 1006.7
20260504230944 70 0 0.0 7.8 0.00 0.00 0.00 37 1006.9
20260504230845 70 0 0.0 7.8 0.00 0.00 0.00 37 1007.0
20260504230731 70 0 0.0 7.8 0.00 0.00 0.00 37 1007.0
20260504230645 70 0 0.0 7.8 0.00 0.00 0.00 37 1006.9
20260504230543 71 0 0.0 7.8 0.00 0.00 0.00 37 1006.9
20260504230520 71 360 2.6 7.8 0.00 0.00 0.00 37 1006.7
20260504230456 71 0 0.0 7.8 0.00 0.00 0.00 36 1006.9
20260504230451 71 0 0.0 7.8 0.00 0.00 0.00 37 1006.9
20260504230242 71 0 0.0 7.8 0.00 0.00 0.00 36 1006.9
20260504230232 71 0 0.0 7.8 0.00 0.00 0.00 36 1006.9
20260504230141 71 0 0.0 7.8 0.00 0.00 0.00 37 1006.9
20260504230041 71 0 0.0 4.3 0.00 0.00 0.00 37 1006.9
20260504230020 71 360 0.0 4.3 0.00 0.00 0.00 36 1006.7
20260504225940 71 0 0.0 4.3 0.00 0.00 0.00 36 1006.9
20260504225838 71 155 0.0 4.3 0.00 0.00 0.00 36 1006.9
20260504225739 71 194 0.0 4.3 0.00 0.00 0.00 37 1006.9
20260504225732 71 193 0.0 4.3 0.00 0.00 0.00 37 1006.9
20260504225637 71 203 0.0 4.3 0.00 0.00 0.00 36 1006.9
20260504225537 71 200 0.0 4.3 0.00 0.00 0.00 36 1006.9
20260504225520 71 177 0.0 4.3 0.00 0.00 0.00 36 1006.7
20260504225436 71 167 0.0 4.3 0.00 0.00 0.00 36 1006.9
20260504225350 71 213 0.0 4.3 0.00 0.00 0.00 36 1006.9
20260504225346 71 218 0.0 4.3 0.00 0.00 0.00 36 1006.9
20260504225230 71 223 0.0 4.3 0.00 0.00 0.00 36 1006.9
20260504225135 71 228 0.0 4.3 0.00 0.00 0.00 36 1006.9
20260504225057 71 194 0.0 4.3 0.00 0.00 0.00 36 1006.9
20260504225020 71 214 0.0 4.3 0.00 0.00 0.00 36 1006.7
20260504224943 71 188 0.0 4.3 0.00 0.00 0.00 36 1006.9
20260504224730 71 225 0.0 5.2 0.00 0.00 0.00 36 1006.8
20260504224646 71 231 0.0 5.2 0.00 0.00 0.00 36 1006.8
20260504224642 71 219 0.0 5.2 0.00 0.00 0.00 35 1006.8
20260504224520 71 193 0.0 5.2 0.00 0.00 0.00 36 1006.6
20260504224505 71 176 0.0 5.2 0.00 0.00 0.00 36 1006.8
20260504224500 71 176 0.0 5.2 0.00 0.00 0.00 35 1006.8
20260504224455 71 198 0.0 5.2 0.00 0.00 0.00 35 1006.8
20260504224337 71 176 0.0 5.2 0.00 0.00 0.00 35 1006.8
20260504224130 71 220 0.0 5.2 0.00 0.00 0.00 36 1006.8
20260504224113 71 197 0.0 6.1 0.00 0.00 0.00 35 1006.8
20260504224109 71 177 0.0 6.1 0.00 0.00 0.00 35 1006.9
20260504224105 71 187 0.0 6.1 0.00 0.00 0.00 36 1006.9
20260504224100 71 193 0.0 5.2 0.00 0.00 0.00 35 1006.8
20260504224035 71 194 0.0 5.2 0.00 0.00 0.00 35 1006.6
20260504223832 71 187 0.0 6.1 0.00 0.00 0.00 35 1006.9
20260504223626 71 209 0.0 6.1 0.00 0.00 0.00 35 1006.9
20260504223526 71 211 0.9 6.1 0.00 0.00 0.00 36 1006.9
20260504223520 71 180 3.5 6.1 0.00 0.00 0.00 36 1006.8
20260504223438 71 202 0.9 7.8 0.00 0.00 0.00 36 1007.0
20260504223434 71 224 0.9 6.1 0.00 0.00 0.00 36 1007.0
20260504223246 71 197 0.9 7.8 0.00 0.00 0.00 35 1007.0
20260504223241 71 226 0.9 7.8 0.00 0.00 0.00 35 1007.0
20260504223236 71 227 0.9 7.8 0.00 0.00 0.00 35 1007.0
20260504223226 71 169 0.9 7.8 0.00 0.00 0.00 35 1007.0
20260504223115 71 186 0.0 7.8 0.00 0.00 0.00 36 1007.0
20260504223110 71 199 0.9 7.8 0.00 0.00 0.00 35 1007.0
20260504223105 71 134 0.9 7.8 0.00 0.00 0.00 35 1007.0
20260504223020 71 193 1.7 7.8 0.00 0.00 0.00 35 1006.8
20260504222732 71 154 0.0 7.8 0.00 0.00 0.00 36 1007.0
20260504222522 71 198 0.0 7.8 0.00 0.00 0.00 36 1007.0
20260504222423 71 211 0.0 7.8 0.00 0.00 0.00 35 1007.0
20260504222342 72 187 0.0 5.2 0.00 0.00 0.00 36 1007.0
20260504222337 71 189 0.0 5.2 0.00 0.00 0.00 36 1006.9
20260504222328 72 191 0.0 5.2 0.00 0.00 0.00 36 1007.0
20260504222121 72 179 0.0 5.2 0.00 0.00 0.00 36 1007.0
20260504222020 72 192 0.0 5.2 0.00 0.00 0.00 36 1006.8
20260504221920 71 173 0.0 7.0 0.00 0.00 0.00 36 1007.0
20260504221820 71 187 0.0 7.0 0.00 0.00 0.00 36 1007.1
20260504221719 71 192 0.0 7.0 0.00 0.00 0.00 35 1007.0
20260504221620 71 227 0.0 7.0 0.00 0.00 0.00 36 1007.1
20260504221520 72 208 0.0 7.0 0.00 0.00 0.00 36 1006.8
20260504221419 72 163 0.0 7.0 0.00 0.00 0.00 36 1007.0
20260504221318 72 172 0.0 7.0 0.00 0.00 0.00 36 1007.1
20260504221226 72 196 0.0 7.0 0.00 0.00 0.00 35 1007.1
20260504221218 72 188 0.0 7.0 0.00 0.00 0.00 35 1007.1
20260504221116 72 193 0.0 7.0 0.00 0.00 0.00 36 1007.1
20260504221035 72 173 4.3 7.0 0.00 0.00 0.00 36 1006.9
20260504221016 72 149 0.0 7.0 0.00 0.00 0.00 36 1007.1
20260504220943 72 174 0.0 5.2 0.00 0.00 0.00 36 1007.1
20260504220829 72 245 0.0 6.1 0.00 0.00 0.00 36 1007.1
20260504220820 72 171 0.0 7.0 0.00 0.00 0.00 36 1007.1
20260504220614 72 213 0.9 7.0 0.00 0.00 0.00 36 1007.1
20260504220555 72 215 0.9 7.0 0.00 0.00 0.00 36 1007.0
20260504220550 72 197 0.9 7.0 0.00 0.00 0.00 36 1007.0
20260504220546 72 191 0.9 7.0 0.00 0.00 0.00 36 1007.1
20260504220541 72 194 0.9 7.0 0.00 0.00 0.00 36 1007.0
20260504220532 72 153 0.9 7.0 0.00 0.00 0.00 36 1007.0
20260504220520 72 194 0.0 7.0 0.00 0.00 0.00 36 1006.8
20260504220108 72 172 0.9 7.0 0.00 0.00 0.00 36 1007.0
20260504220022 72 193 0.9 7.0 0.00 0.00 0.00 36 1007.0
20260504220020 72 185 0.0 7.0 0.00 0.00 0.00 36 1006.8
20260504220017 72 186 0.9 7.0 0.00 0.00 0.00 36 1007.0
20260504215807 72 213 0.0 7.0 0.00 0.00 0.00 36 1007.0
20260504215723 72 218 0.0 7.0 0.00 0.00 0.00 36 1007.0
20260504215708 72 213 0.9 7.0 0.00 0.00 0.00 36 1007.1
20260504215606 72 181 0.0 7.0 0.00 0.00 0.00 36 1007.0
20260504215520 72 209 0.0 7.0 0.00 0.00 0.00 36 1006.7
20260504215506 72 175 0.0 7.0 0.00 0.00 0.00 36 1007.0
20260504215432 72 139 0.0 7.0 0.00 0.00 0.00 35 1007.1
20260504215319 72 223 0.0 7.0 0.00 0.00 0.00 35 1007.1
20260504215311 72 170 0.0 7.0 0.00 0.00 0.00 35 1007.1
20260504215118 72 212 0.9 7.0 0.00 0.00 0.00 35 1007.2
20260504215113 72 185 0.0 7.0 0.00 0.00 0.00 35 1007.1
20260504215020 72 243 0.0 7.0 0.00 0.00 0.00 35 1006.9
20260504214903 72 196 0.9 7.0 0.00 0.00 0.00 36 1007.1
20260504214802 72 178 0.9 7.0 0.00 0.00 0.00 36 1007.1
20260504214723 72 212 0.9 7.0 0.00 0.00 0.00 35 1007.1
20260504214701 72 227 0.0 7.0 0.00 0.00 0.00 35 1007.1
20260504214615 72 175 0.0 5.2 0.00 0.00 0.00 35 1007.1
20260504214610 72 183 0.0 5.2 0.00 0.00 0.00 35 1007.1
20260504214520 72 179 0.0 5.2 0.00 0.00 0.00 35 1006.8
20260504214359 72 221 0.0 5.2 0.00 0.00 0.00 35 1007.1
20260504214300 72 197 0.0 7.0 0.00 0.00 0.00 36 1007.2
20260504214222 72 186 0.0 7.0 0.00 0.00 0.00 35 1007.2
20260504214159 72 188 0.0 7.0 0.00 0.00 0.00 35 1007.1
20260504214058 72 204 0.0 7.0 0.00 0.00 0.00 37 1007.2
20260504214020 72 190 0.0 7.0 0.00 0.00 0.00 36 1006.9
20260504214012 72 153 0.0 7.0 0.00 0.00 0.00 36 1007.1
20260504214006 72 208 0.0 7.0 0.00 0.00 0.00 36 1007.2
20260504213816 72 212 0.0 7.0 0.00 0.00 0.00 36 1007.2
20260504213811 72 206 0.0 7.0 0.00 0.00 0.00 36 1007.2
20260504213803 72 199 0.0 7.0 0.00 0.00 0.00 36 1007.2
20260504213556 72 234 0.0 7.0 0.00 0.00 0.00 35 1007.1
20260504213521 72 236 0.0 7.0 0.00 0.00 0.00 35 1006.9
20260504213456 72 250 0.0 7.0 0.00 0.00 0.00 36 1007.2
20260504213354 72 207 0.0 7.0 0.00 0.00 0.00 35 1007.1
20260504213254 72 223 0.0 6.1 0.00 0.00 0.00 35 1007.1
20260504213219 72 202 0.0 5.2 0.00 0.00 0.00 35 1007.1
20260504213154 72 187 0.0 5.2 0.00 0.00 0.00 35 1007.1
20260504213052 72 188 0.0 6.1 0.00 0.00 0.00 35 1007.1
20260504213050 73 228 1.7 5.2 0.00 0.00 0.00 36 1006.8
20260504212952 73 209 0.0 6.1 0.00 0.00 0.00 35 1007.1
20260504212852 73 178 0.0 6.1 0.00 0.00 0.00 35 1007.1
20260504212810 73 195 0.9 7.8 0.00 0.00 0.00 35 1007.1
20260504212804 73 165 0.9 7.8 0.00 0.00 0.00 35 1007.1
20260504212756 73 191 0.9 7.8 0.00 0.00 0.00 35 1007.1
20260504212603 73 195 0.9 7.8 0.00 0.00 0.00 35 1007.2
20260504212558 73 254 0.9 7.8 0.00 0.00 0.00 36 1007.1
20260504212520 73 169 0.0 7.8 0.00 0.00 0.00 35 1006.9
20260504212346 73 232 0.9 7.8 0.00 0.00 0.00 34 1007.2
20260504212246 73 215 0.9 7.8 0.00 0.00 0.00 34 1007.2
20260504212220 73 213 0.9 7.8 0.00 0.00 0.00 34 1007.2
20260504212145 73 123 0.0 7.8 0.00 0.00 0.00 34 1007.1
20260504212045 73 149 0.0 7.8 0.00 0.00 0.00 35 1007.1
20260504212020 73 160 0.0 7.8 0.00 0.00 0.00 35 1006.9
20260504211943 73 246 0.0 7.8 0.00 0.00 0.00 35 1007.2
20260504211843 73 234 0.0 7.8 0.00 0.00 0.00 35 1007.1
20260504211742 73 222 0.0 3.5 0.00 0.00 0.00 36 1007.1
20260504211720 73 190 0.0 3.5 0.00 0.00 0.00 36 1007.1
20260504211643 73 225 0.0 3.5 0.00 0.00 0.00 37 1007.1
20260504211542 73 222 0.0 3.5 0.00 0.00 0.00 36 1007.2
20260504211521 73 214 0.0 2.6 0.00 0.00 0.00 35 1006.8
20260504211442 73 199 0.0 3.5 0.00 0.00 0.00 35 1007.1
20260504211340 73 225 0.0 6.1 0.00 0.00 0.00 34 1007.1
20260504211240 73 250 0.0 6.1 0.00 0.00 0.00 35 1007.1
20260504211221 73 230 0.0 6.1 0.00 0.00 0.00 35 1007.1
20260504211153 73 237 0.9 8.7 0.00 0.00 0.00 35 1007.1
20260504211148 73 199 0.0 6.1 0.00 0.00 0.00 34 1007.1
20260504211020 73 205 0.0 7.8 0.00 0.00 0.00 35 1006.8
20260504210937 73 211 0.9 8.7 0.00 0.00 0.00 35 1007.1
20260504210851 73 205 0.9 8.7 0.00 0.00 0.00 34 1007.1
20260504210846 73 198 0.9 8.7 0.00 0.00 0.00 35 1007.1
20260504210719 73 193 0.9 8.7 0.00 0.00 0.00 34 1007.1
20260504210636 73 180 0.9 8.7 0.00 0.00 0.00 34 1007.1
20260504210551 73 217 0.9 8.7 0.00 0.00 0.00 35 1007.2
20260504210545 73 183 0.9 8.7 0.00 0.00 0.00 35 1007.1
20260504210520 73 190 0.0 7.8 0.00 0.00 0.00 35 1006.9
20260504210409 73 179 0.9 8.7 0.00 0.00 0.00 35 1007.1
20260504210405 73 196 0.9 8.7 0.00 0.00 0.00 34 1007.1
20260504210359 73 209 0.9 8.7 0.00 0.00 0.00 35 1007.2
20260504210243 73 196 0.9 8.7 0.00 0.00 0.00 35 1007.1
20260504210035 74 186 0.9 7.0 0.00 0.00 0.00 34 1007.1
20260504210020 74 178 4.3 7.0 0.00 0.00 0.00 34 1006.8
20260504205934 74 211 0.0 7.0 0.00 0.00 0.00 34 1007.1
20260504205834 74 192 0.0 7.0 0.00 0.00 0.00 34 1007.1
20260504205733 74 178 0.0 7.0 0.00 0.00 0.00 34 1007.1
20260504205720 74 171 0.0 7.0 0.00 0.00 0.00 34 1007.1
20260504205646 74 214 0.0 7.0 0.00 0.00 0.00 33 1007.1
20260504205640 74 201 0.0 7.0 0.00 0.00 0.00 34 1007.1
20260504205520 74 263 3.5 6.1 0.00 0.00 0.00 33 1006.8
20260504205454 74 194 0.0 2.6 0.00 0.00 0.00 34 1007.2
20260504205449 74 188 0.0 2.6 0.00 0.00 0.00 35 1007.2
20260504205444 74 211 0.0 2.6 0.00 0.00 0.00 34 1007.1
20260504205435 74 208 0.0 2.6 0.00 0.00 0.00 34 1007.2
20260504205128 74 211 0.0 3.5 0.00 0.00 0.00 34 1007.1
20260504205050 74 227 0.0 3.5 0.00 0.00 0.00 35 1006.8
20260504205028 74 224 0.0 3.5 0.00 0.00 0.00 35 1007.2
20260504204928 74 209 0.0 3.5 0.00 0.00 0.00 34 1007.1
20260504204826 74 219 0.0 3.5 0.00 0.00 0.00 34 1007.1
20260504204726 74 218 0.0 3.5 0.00 0.00 0.00 35 1007.1
20260504204717 74 195 0.0 3.5 0.00 0.00 0.00 35 1007.1
20260504204627 74 246 0.0 7.0 0.00 0.00 0.00 34 1007.1
20260504204548 74 269 0.0 7.0 0.00 0.00 0.00 34 1007.1
20260504204520 74 229 0.0 7.0 0.00 0.00 0.00 34 1006.8
20260504204434 74 262 0.0 7.0 0.00 0.00 0.00 34 1007.1
20260504204225 74 183 0.0 7.0 0.00 0.00 0.00 35 1007.1
20260504204217 74 194 0.0 7.0 0.00 0.00 0.00 35 1007.1
20260504204137 74 225 0.0 7.0 0.00 0.00 0.00 34 1007.2
20260504204132 74 195 0.0 7.0 0.00 0.00 0.00 34 1007.2
20260504204035 74 229 0.0 7.0 0.00 0.00 0.00 34 1006.8
20260504203936 74 236 0.0 7.0 0.00 0.00 0.00 35 1007.2
20260504203931 74 234 0.0 7.0 0.00 0.00 0.00 34 1007.1
20260504203723 74 243 0.0 7.0 0.00 0.00 0.00 34 1007.2
20260504203717 74 238 0.0 7.0 0.00 0.00 0.00 34 1007.2
20260504203621 74 261 0.0 6.1 0.00 0.00 0.00 34 1007.2
20260504203614 75 187 0.0 6.1 0.00 0.00 0.00 34 1007.1
20260504203608 74 225 0.0 6.1 0.00 0.00 0.00 34 1007.2
20260504203520 74 197 0.0 6.1 0.00 0.00 0.00 33 1006.9
20260504203455 74 227 0.0 3.5 0.00 0.00 0.00 34 1007.2
20260504203451 74 207 0.0 3.5 0.00 0.00 0.00 33 1007.2
20260504203446 74 213 0.0 6.1 0.00 0.00 0.00 33 1007.2
20260504203332 75 179 0.0 6.1 0.00 0.00 0.00 33 1007.2
20260504203216 75 189 0.0 6.1 0.00 0.00 0.00 34 1007.1
20260504203208 74 234 0.0 3.5 0.00 0.00 0.00 33 1007.2
20260504203021 75 223 0.0 3.5 0.00 0.00 0.00 34 1006.9
20260504202832 74 199 0.0 3.5 0.00 0.00 0.00 34 1007.2
20260504202825 74 196 0.0 3.5 0.00 0.00 0.00 34 1007.2
20260504202606 74 226 0.0 1.7 0.00 0.00 0.00 34 1007.2
20260504202600 74 192 0.0 1.7 0.00 0.00 0.00 35 1007.2
20260504202520 74 238 0.0 1.7 0.00 0.00 0.00 35 1006.9
20260504202337 74 240 0.0 1.7 0.00 0.00 0.00 34 1007.2
20260504202223 74 226 0.0 1.7 0.00 0.00 0.00 34 1007.3
20260504202020 74 244 0.0 3.5 0.00 0.00 0.00 36 1007.0
20260504202013 74 279 0.0 3.5 0.00 0.00 0.00 36 1007.3
20260504201948 74 216 0.0 3.5 0.00 0.00 0.00 35 1007.3
20260504201913 74 276 0.0 3.5 0.00 0.00 0.00 34 1007.3
20260504201840 74 263 0.0 7.8 0.00 0.00 0.00 35 1007.3
20260504201835 74 213 0.0 3.5 0.00 0.00 0.00 35 1007.3
20260504201720 74 216 0.0 3.5 0.00 0.00 0.00 35 1007.3
20260504201550 74 215 0.0 7.8 0.00 0.00 0.00 34 1007.0
20260504201511 74 215 0.0 7.8 0.00 0.00 0.00 34 1007.3
20260504201410 74 213 0.0 7.8 0.00 0.00 0.00 34 1007.3
20260504201310 74 201 0.0 7.8 0.00 0.00 0.00 34 1007.3
20260504201215 74 210 0.0 7.8 0.00 0.00 0.00 34 1007.3
20260504201209 74 220 0.0 7.8 0.00 0.00 0.00 34 1007.3
20260504201108 74 216 0.9 7.8 0.00 0.00 0.00 34 1007.3
20260504201020 74 273 0.9 10.4 0.00 0.00 0.00 34 1007.0
20260504201008 74 258 0.9 10.4 0.00 0.00 0.00 34 1007.3
20260504200921 74 200 0.9 10.4 0.00 0.00 0.00 34 1007.4
20260504200916 74 203 0.0 10.4 0.00 0.00 0.00 34 1007.3
20260504200715 74 226 0.9 10.4 0.00 0.00 0.00 34 1007.5
20260504200706 74 192 0.9 10.4 0.00 0.00 0.00 34 1007.5
20260504200606 74 220 0.9 10.4 0.00 0.00 0.00 34 1007.5
20260504200520 74 209 0.0 10.4 0.00 0.00 0.00 34 1007.2
20260504200506 74 235 0.9 10.4 0.00 0.00 0.00 34 1007.5
20260504200405 74 203 0.9 10.4 0.00 0.00 0.00 33 1007.4
20260504200304 74 201 0.9 10.4 0.00 0.00 0.00 33 1007.5
20260504200214 74 221 0.9 10.4 0.00 0.00 0.00 33 1007.5
20260504200203 74 184 0.9 10.4 0.00 0.00 0.00 33 1007.5
20260504200020 74 192 0.0 7.8 0.00 0.00 0.00 35 1007.2
20260504200002 74 244 0.9 7.8 0.00 0.00 0.00 35 1007.5
20260504195901 74 204 0.9 7.8 0.00 0.00 0.00 35 1007.5
20260504195800 74 49 0.0 7.8 0.00 0.00 0.00 34 1007.5
20260504195718 74 261 0.0 3.5 0.00 0.00 0.00 34 1007.6
20260504195714 74 225 0.0 7.8 0.00 0.00 0.00 35 1007.5
20260504195708 74 237 0.0 3.5 0.00 0.00 0.00 35 1007.5
20260504195520 74 235 0.0 3.5 0.00 0.00 0.00 34 1007.2
20260504195458 74 232 0.0 3.5 0.00 0.00 0.00 35 1007.5
20260504195358 74 227 0.0 3.5 0.00 0.00 0.00 34 1007.6
20260504195257 74 259 0.0 4.3 0.00 0.00 0.00 35 1007.6
20260504195212 73 200 0.9 7.0 0.00 0.00 0.00 35 1007.6
20260504195157 73 242 0.9 10.4 0.00 0.00 0.00 35 1007.6
20260504195057 73 286 0.9 10.4 0.00 0.00 0.00 35 1007.5
20260504195035 73 248 0.0 10.4 0.00 0.00 0.00 35 1007.2
20260504194956 73 202 0.9 10.4 0.00 0.00 0.00 35 1007.5
20260504194910 73 164 0.9 10.4 0.00 0.00 0.00 35 1007.5
20260504194905 73 221 0.9 10.4 0.00 0.00 0.00 36 1007.6
20260504194712 73 234 0.9 10.4 0.00 0.00 0.00 35 1007.6
20260504194655 73 228 0.9 10.4 0.00 0.00 0.00 35 1007.6
20260504194554 73 257 0.9 10.4 0.00 0.00 0.00 34 1007.5
20260504194535 73 180 0.0 10.4 0.00 0.00 0.00 36 1007.2
20260504194453 73 227 0.9 10.4 0.00 0.00 0.00 35 1007.5
20260504194406 73 173 0.9 10.4 0.00 0.00 0.00 34 1007.5
20260504194401 73 227 0.9 10.4 0.00 0.00 0.00 34 1007.6
20260504194212 73 159 0.0 10.4 0.00 0.00 0.00 35 1007.5
20260504194151 73 184 0.0 7.8 0.00 0.00 0.00 35 1007.5
20260504194051 73 192 0.0 7.8 0.00 0.00 0.00 34 1007.6
20260504194020 73 175 0.0 7.8 0.00 0.00 0.00 34 1007.3
20260504193950 73 200 0.0 7.8 0.00 0.00 0.00 34 1007.6
20260504193901 73 215 0.0 7.8 0.00 0.00 0.00 33 1007.6
20260504193856 73 208 0.0 7.8 0.00 0.00 0.00 33 1007.6
20260504193712 73 219 0.0 7.8 0.00 0.00 0.00 35 1007.7
20260504193646 73 190 0.0 4.3 0.00 0.00 0.00 35 1007.7
20260504193634 73 256 0.0 4.3 0.00 0.00 0.00 37 1007.6
20260504193522 73 92 0.9 7.8 0.00 0.00 0.00 35 1007.6
20260504193520 73 196 0.0 7.0 0.00 0.00 0.00 36 1007.3
20260504193516 73 196 0.0 7.0 0.00 0.00 0.00 36 1007.6
20260504193403 73 195 0.9 7.0 0.00 0.00 0.00 35 1007.6
20260504193246 73 223 0.9 7.0 0.00 0.00 0.00 34 1007.6
20260504193239 73 226 0.9 7.0 0.00 0.00 0.00 36 1007.6
20260504193021 73 211 0.0 7.8 0.00 0.00 0.00 34 1007.3
20260504193018 73 174 0.0 7.8 0.00 0.00 0.00 34 1007.6
20260504193012 73 177 0.9 7.8 0.00 0.00 0.00 34 1007.6
20260504192746 73 186 0.0 7.8 0.00 0.00 0.00 33 1007.6
20260504192539 73 209 0.0 7.8 0.00 0.00 0.00 33 1007.6
20260504192520 73 207 0.0 7.8 0.00 0.00 0.00 32 1007.3
20260504192439 74 149 0.0 7.8 0.00 0.00 0.00 32 1007.6
20260504192338 74 186 0.0 7.8 0.00 0.00 0.00 33 1007.7
20260504192238 74 229 0.0 7.8 0.00 0.00 0.00 32 1007.7
20260504192210 74 186 0.0 7.8 0.00 0.00 0.00 32 1007.7
20260504192137 74 202 0.0 7.8 0.00 0.00 0.00 32 1007.7
20260504192037 75 190 0.0 4.3 0.00 0.00 0.00 33 1007.7
20260504192020 75 198 0.0 4.3 0.00 0.00 0.00 33 1007.4
20260504191934 75 224 0.0 4.3 0.00 0.00 0.00 32 1007.7
20260504191833 75 205 0.0 4.3 0.00 0.00 0.00 32 1007.7
20260504191733 75 242 0.0 4.3 0.00 0.00 0.00 34 1007.8
20260504191709 75 263 0.0 4.3 0.00 0.00 0.00 34 1007.8
20260504191632 75 240 0.0 4.3 0.00 0.00 0.00 34 1007.8
20260504191532 75 275 0.0 4.3 0.00 0.00 0.00 34 1007.9
20260504191520 75 203 0.0 4.3 0.00 0.00 0.00 34 1007.6
20260504191429 75 205 0.0 4.3 0.00 0.00 0.00 33 1007.9
20260504191329 75 208 0.0 4.3 0.00 0.00 0.00 32 1007.9
20260504191228 75 234 0.0 3.5 0.00 0.00 0.00 34 1007.9
20260504191210 74 151 0.0 3.5 0.00 0.00 0.00 34 1007.9
20260504191141 74 238 0.0 3.5 0.00 0.00 0.00 34 1007.8
20260504191136 74 182 0.0 3.5 0.00 0.00 0.00 33 1007.9
20260504191020 74 234 0.0 1.7 0.00 0.00 0.00 34 1007.6
20260504190931 74 240 0.0 0.9 0.00 0.00 0.00 33 1007.8
20260504190927 74 260 0.0 0.9 0.00 0.00 0.00 32 1007.9
20260504190920 74 217 0.0 0.9 0.00 0.00 0.00 33 1007.9
20260504190916 74 239 0.0 0.9 0.00 0.00 0.00 33 1007.9
20260504190910 74 209 0.0 0.9 0.00 0.00 0.00 32 1007.8
20260504190754 74 301 0.0 0.9 0.00 0.00 0.00 33 1007.9
20260504190642 74 241 0.0 0.9 0.00 0.00 0.00 33 1007.9
20260504190535 74 204 0.0 0.9 0.00 0.00 0.00 33 1007.6
20260504190325 74 156 0.0 0.9 0.00 0.00 0.00 34 1007.9
20260504190316 74 212 0.0 0.0 0.00 0.00 0.00 35 1007.9
20260504190121 74 228 0.0 1.7 0.00 0.00 0.00 34 1008.0
20260504190020 74 231 0.0 1.7 0.00 0.00 0.00 34 1007.7
20260504185948 74 217 0.0 1.7 0.00 0.00 0.00 37 1008.0
20260504185943 74 192 0.0 1.7 0.00 0.00 0.00 34 1008.0
20260504185938 74 234 0.0 1.7 0.00 0.00 0.00 35 1008.0
20260504185708 74 197 0.0 1.7 0.00 0.00 0.00 34 1008.1
20260504185633 74 209 0.0 1.7 0.00 0.00 0.00 33 1008.1
20260504185628 74 223 0.0 1.7 0.00 0.00 0.00 34 1008.1
20260504185520 74 209 0.0 1.7 0.00 0.00 0.00 33 1007.8
20260504185418 74 188 0.0 1.7 0.00 0.00 0.00 34 1008.1
20260504185316 74 186 0.0 1.7 0.00 0.00 0.00 32 1008.1
20260504185235 73 247 0.0 1.7 0.00 0.00 0.00 36 1008.2
20260504185230 74 211 0.0 1.7 0.00 0.00 0.00 33 1008.1
20260504185223 74 227 0.0 1.7 0.00 0.00 0.00 33 1008.2
20260504185020 73 194 0.0 0.9 0.00 0.00 0.00 35 1007.9
20260504185016 73 194 0.0 2.6 0.00 0.00 0.00 37 1008.2
20260504184915 73 221 0.0 2.6 0.00 0.00 0.00 34 1008.2
20260504184814 73 279 0.0 3.5 0.00 0.00 0.00 33 1008.2
20260504184714 73 197 0.0 3.5 0.00 0.00 0.00 33 1008.2
20260504184706 73 232 0.0 3.5 0.00 0.00 0.00 33 1008.2
20260504184613 73 226 0.0 3.5 0.00 0.00 0.00 33 1008.2
20260504184520 73 277 0.0 11.3 0.00 0.00 0.00 34 1008.0
20260504184513 73 233 0.0 11.3 0.00 0.00 0.00 34 1008.3
20260504184411 73 236 0.9 11.3 0.00 0.00 0.00 37 1008.3
20260504184312 73 267 0.9 11.3 0.00 0.00 0.00 35 1008.3
20260504184251 73 183 0.9 11.3 0.00 0.00 0.00 33 1008.3
20260504184238 73 245 0.9 11.3 0.00 0.00 0.00 34 1008.2
20260504184020 73 252 0.0 11.3 0.00 0.00 0.00 32 1007.9
20260504184018 73 229 0.9 11.3 0.00 0.00 0.00 32 1008.3
20260504184013 73 237 0.9 11.3 0.00 0.00 0.00 32 1008.2
20260504184004 73 182 0.9 11.3 0.00 0.00 0.00 34 1008.3
20260504183845 73 229 0.9 11.3 0.00 0.00 0.00 32 1008.3
20260504183628 74 200 0.0 7.0 0.00 0.00 0.00 32 1008.4
20260504183622 74 173 0.0 11.3 0.00 0.00 0.00 32 1008.3
20260504183535 74 134 0.9 6.1 0.00 0.00 0.00 34 1008.0
20260504183345 74 178 0.0 5.2 0.00 0.00 0.00 34 1008.4
20260504183339 74 202 0.0 6.1 0.00 0.00 0.00 34 1008.4
20260504183226 74 255 0.0 6.1 0.00 0.00 0.00 33 1008.4
20260504183220 74 255 0.0 6.1 0.00 0.00 0.00 33 1008.4
20260504183020 74 190 0.9 5.2 0.00 0.00 0.00 33 1008.2
20260504182901 74 225 0.0 4.3 0.00 0.00 0.00 34 1008.5
20260504182814 74 194 0.0 4.3 0.00 0.00 0.00 33 1008.4
20260504182707 74 244 0.0 4.3 0.00 0.00 0.00 33 1008.4
20260504182701 74 243 0.0 4.3 0.00 0.00 0.00 33 1008.4
20260504182559 74 300 0.0 7.8 0.00 0.00 0.00 34 1008.4
20260504182520 74 237 0.0 7.8 0.00 0.00 0.00 34 1008.1
20260504182458 74 237 0.0 7.8 0.00 0.00 0.00 34 1008.4
20260504182438 73 239 0.0 7.8 0.00 0.00 0.00 35 1008.5
20260504182434 73 244 0.0 7.8 0.00 0.00 0.00 35 1008.5
20260504182428 73 253 0.0 7.8 0.00 0.00 0.00 33 1008.6
20260504182423 73 241 0.0 7.8 0.00 0.00 0.00 34 1008.4
20260504182159 73 240 0.0 7.8 0.00 0.00 0.00 33 1008.5
20260504182035 73 228 2.6 7.8 0.00 0.00 0.00 33 1008.2
20260504182028 73 243 0.0 7.8 0.00 0.00 0.00 33 1008.5
20260504181849 73 188 0.0 7.8 0.00 0.00 0.00 31 1008.6
20260504181809 74 178 0.0 7.8 0.00 0.00 0.00 33 1008.5
20260504181646 74 184 0.0 7.8 0.00 0.00 0.00 34 1008.5
20260504181559 74 178 0.0 6.1 0.00 0.00 0.00 35 1008.5
20260504181554 74 218 0.0 6.1 0.00 0.00 0.00 32 1008.6
20260504181520 74 202 0.0 6.1 0.00 0.00 0.00 32 1008.2
20260504181342 74 222 0.9 10.4 0.00 0.00 0.00 32 1008.5
20260504181241 74 264 0.9 10.4 0.00 0.00 0.00 32 1008.6
20260504181201 74 286 0.9 10.4 0.00 0.00 0.00 33 1008.6
20260504181140 74 212 0.9 10.4 0.00 0.00 0.00 34 1008.6
20260504181054 74 252 0.9 10.4 0.00 0.00 0.00 33 1008.7
20260504181049 74 194 0.9 10.4 0.00 0.00 0.00 33 1008.7
20260504181035 74 182 0.0 10.4 0.00 0.00 0.00 33 1008.4
20260504180928 74 263 0.0 10.4 0.00 0.00 0.00 33 1008.7
20260504180817 73 219 0.0 10.4 0.00 0.00 0.00 33 1008.6
20260504180812 73 242 0.0 1.7 0.00 0.00 0.00 34 1008.7
20260504180807 73 227 0.0 5.2 0.00 0.00 0.00 34 1008.7
20260504180803 73 229 0.0 5.2 0.00 0.00 0.00 33 1008.7
20260504180758 74 234 0.0 10.4 0.00 0.00 0.00 34 1008.7
20260504180750 73 240 0.0 10.4 0.00 0.00 0.00 33 1008.7
20260504180743 73 201 0.0 10.4 0.00 0.00 0.00 34 1008.7
20260504180519 73 217 0.0 10.4 0.00 0.00 0.00 34 1008.3
20260504180136 73 229 0.0 5.2 0.00 0.00 0.00 33 1008.7
20260504180035 73 292 0.0 5.2 0.00 0.00 0.00 33 1008.7
20260504180020 73 238 0.0 5.2 0.00 0.00 0.00 33 1008.5
20260504175933 73 199 0.0 5.2 0.00 0.00 0.00 34 1008.8
20260504175834 73 246 0.0 5.2 0.00 0.00 0.00 34 1008.8
20260504175733 73 267 0.0 5.2 0.00 0.00 0.00 34 1008.8
20260504175659 73 288 0.0 5.2 0.00 0.00 0.00 33 1008.9
20260504175632 73 259 0.0 5.2 0.00 0.00 0.00 33 1008.9
20260504175532 72 286 0.0 5.2 0.00 0.00 0.00 35 1008.9
20260504175520 72 237 0.0 5.2 0.00 0.00 0.00 35 1008.6
20260504175431 72 255 0.0 5.2 0.00 0.00 0.00 34 1008.9
20260504175332 72 200 0.9 5.2 0.00 0.00 0.00 36 1009.0
20260504175250 72 209 0.0 7.0 0.00 0.00 0.00 32 1009.0
20260504175245 72 221 0.9 7.0 0.00 0.00 0.00 34 1009.0
20260504175237 72 200 0.0 7.0 0.00 0.00 0.00 32 1009.0
20260504175050 72 212 2.6 7.0 0.00 0.00 0.00 33 1008.7
20260504175030 72 231 0.0 7.0 0.00 0.00 0.00 33 1009.0
20260504174929 72 200 0.0 7.0 0.00 0.00 0.00 33 1009.0
20260504174922 73 194 0.0 7.0 0.00 0.00 0.00 31 1008.9
20260504174827 73 166 0.0 7.0 0.00 0.00 0.00 32 1008.9
20260504174806 73 184 0.0 7.0 0.00 0.00 0.00 32 1009.0
20260504174624 73 198 0.0 7.0 0.00 0.00 0.00 31 1008.9
20260504174525 73 192 0.0 7.0 0.00 0.00 0.00 32 1009.0
20260504174520 73 208 0.0 7.0 0.00 0.00 0.00 32 1008.7
20260504174424 73 200 0.0 7.0 0.00 0.00 0.00 33 1009.0
20260504174324 73 200 0.9 17.4 0.00 0.00 0.00 34 1009.0
20260504174223 73 193 0.0 17.4 0.00 0.00 0.00 32 1009.1
20260504174158 73 190 0.9 17.4 0.00 0.00 0.00 32 1009.1
20260504174123 73 220 0.9 17.4 0.00 0.00 0.00 34 1009.1
20260504174022 73 206 0.9 17.4 0.00 0.00 0.00 34 1009.1
20260504174020 73 173 0.0 17.4 0.00 0.00 0.00 32 1008.8
20260504173922 73 208 0.9 17.4 0.00 0.00 0.00 32 1009.1
20260504173821 73 254 0.9 17.4 0.00 0.00 0.00 33 1009.1
20260504173722 73 197 0.9 17.4 0.00 0.00 0.00 32 1009.1
20260504173656 73 221 0.9 17.4 0.00 0.00 0.00 32 1009.2
20260504173622 73 203 0.9 17.4 0.00 0.00 0.00 32 1009.2
20260504173520 73 229 0.9 17.4 0.00 0.00 0.00 33 1009.1
20260504173420 73 238 0.9 17.4 0.00 0.00 0.00 34 1009.2
20260504173352 73 270 0.0 10.4 0.00 0.00 0.00 33 1009.2
20260504173346 72 254 0.0 10.4 0.00 0.00 0.00 35 1009.2
20260504173341 73 232 0.0 7.0 0.00 0.00 0.00 33 1009.1
20260504173225 72 253 0.0 10.4 0.00 0.00 0.00 33 1009.2
20260504173019 72 253 0.0 10.4 0.00 0.00 0.00 35 1009.0
20260504173017 72 242 0.0 10.4 0.00 0.00 0.00 35 1009.3
20260504172917 72 242 0.0 10.4 0.00 0.00 0.00 34 1009.3
20260504172815 72 214 0.0 10.4 0.00 0.00 0.00 34 1009.2
20260504172715 72 158 0.0 10.4 0.00 0.00 0.00 35 1009.2
20260504172655 72 200 0.0 10.4 0.00 0.00 0.00 35 1009.2
20260504172614 72 212 0.0 10.4 0.00 0.00 0.00 33 1009.3
20260504172534 72 173 0.0 10.4 0.00 0.00 0.00 32 1009.0
20260504172514 72 182 0.0 10.4 0.00 0.00 0.00 32 1009.3
20260504172413 72 241 0.0 10.4 0.00 0.00 0.00 33 1009.3
20260504172312 72 194 0.0 10.4 0.00 0.00 0.00 33 1009.3
20260504172212 72 206 0.0 5.2 0.00 0.00 0.00 35 1009.3
20260504172156 72 194 0.0 5.2 0.00 0.00 0.00 35 1009.3
20260504172111 72 151 0.0 0.9 0.00 0.00 0.00 34 1009.3
20260504172020 72 229 0.0 0.9 0.00 0.00 0.00 34 1009.0
20260504172010 72 229 0.0 0.9 0.00 0.00 0.00 34 1009.3
20260504171924 72 153 0.0 7.0 0.00 0.00 0.00 35 1009.3
20260504171918 72 219 0.0 0.9 0.00 0.00 0.00 37 1009.3
20260504171709 71 215 0.0 7.0 0.00 0.00 0.00 35 1009.3
20260504171655 71 189 0.0 7.0 0.00 0.00 0.00 35 1009.3
20260504171608 71 186 0.0 8.7 0.00 0.00 0.00 35 1009.4
20260504171519 71 196 0.0 7.8 0.00 0.00 0.00 36 1009.0
20260504171508 71 196 0.0 8.7 0.00 0.00 0.00 36 1009.3
20260504171419 71 167 0.0 8.7 0.00 0.00 0.00 33 1009.4
20260504171414 71 215 0.0 8.7 0.00 0.00 0.00 34 1009.3
20260504171204 72 194 0.0 8.7 0.00 0.00 0.00 33 1009.4
20260504171155 72 159 0.0 8.7 0.00 0.00 0.00 34 1009.4
20260504171105 71 173 0.0 8.7 0.00 0.00 0.00 35 1009.4
20260504171020 71 223 0.0 7.8 0.00 0.00 0.00 34 1009.1
20260504171018 71 288 0.9 8.7 0.00 0.00 0.00 35 1009.4
20260504171013 71 221 0.9 8.7 0.00 0.00 0.00 34 1009.4
20260504170803 71 222 0.9 8.7 0.00 0.00 0.00 36 1009.5
20260504170655 71 233 0.9 8.7 0.00 0.00 0.00 34 1009.5
20260504170629 71 196 0.0 7.8 0.00 0.00 0.00 34 1009.5
20260504170625 71 189 0.0 7.8 0.00 0.00 0.00 34 1009.5
20260504170619 71 217 0.0 7.8 0.00 0.00 0.00 33 1009.5
20260504170519 71 189 0.9 7.8 0.00 0.00 0.00 33 1009.2
20260504170316 71 194 0.0 7.8 0.00 0.00 0.00 33 1009.6
20260504170310 71 236 0.0 7.8 0.00 0.00 0.00 32 1009.5
20260504170154 71 216 0.0 7.8 0.00 0.00 0.00 33 1009.6
20260504160444 71 226 0.0 10.4 0.00 0.00 0.00 33 1010.2
20260504160440 71 248 0.0 10.4 0.00 0.00 0.00 32 1010.2
20260504160229 71 239 0.0 3.5 0.00 0.00 0.00 34 1010.2
20260504160143 71 273 0.0 3.5 0.00 0.00 0.00 34 1010.2
20260504160130 71 245 0.0 3.5 0.00 0.00 0.00 34 1010.2